Darstellungsparameter: Aktuell verwendete Einstellungen:
Skalierung der Graphiken ... ?
xyx+y,   Skalierungsfaktor:      Skalierung: Modus: x, Faktor: 1
Darstellungszeitraum ... ?
Vom - - bis: - -   Zeitraum: 29.07.2018 - 02.08.2018
Min/Max/Avg-Anzeige ... ?
Zeige MMA aktuell
Zeige MMA Monat
Zeige MMA alles
Zeige --A aktuell
Zeige --A Monat
Zeige --A alles
Keine MMA-Anzeige
MMA:
Keine MMA-Graphiken
MMA-Basis: 29.07.2018 - 02.08.2018
Quicknavigation für Darstellung... ?
Tage:      1T, 2T, 3T, 5T -1T -2T -3T -5T +1T +2T +3T +5T
Wochen: 1W, 2W, 3W -1W -2W -3W +1W +2W +3W
Monate: 1M, 3M, 6M -1M -3M -6M +1M +3M +6M
Jahre:    1J, 3J, 5J, 10J -1J -3J -5J -10J +1J +3J +5J +10J
Nutze für die Darstellung ... ?
Originaldaten oder Mittelwerte auf ...
Stundenbasis Tagesbasis Wochenbasis
Monatsbasis Jahresbasis      Datenbasis: Original-Daten
Darstellen als:
Statistik (Auto) Statistik J:M      Darstellung:
Zur Graphik,    zurück zur Übersicht aller Sensoren.
 
Tabellarische Datenbersicht: ?
 
Sensor: Nr:Datum:Temp:Feuchte:Taupunkt:
Aussen-T/F 1 29-07-2018 00:00:00 19.8 C 84 % 17.02 C
2 29-07-2018 00:05:00 19.8 C 85 % 17.21 C
3 29-07-2018 00:10:00 19.7 C 85 % 17.11 C
4 29-07-2018 00:15:00 19.6 C 84 % 16.82 C
5 29-07-2018 00:20:00 19.4 C 85 % 16.81 C
6 29-07-2018 00:25:00 19.3 C 85 % 16.72 C
7 29-07-2018 00:30:00 19.3 C 85 % 16.72 C
8 29-07-2018 00:35:00 19.2 C 86 % 16.8 C
9 29-07-2018 00:40:00 19.2 C 87 % 16.98 C
10 29-07-2018 00:45:00 19.2 C 87 % 16.98 C
11 29-07-2018 00:50:00 19.1 C 87 % 16.89 C
12 29-07-2018 00:55:00 19.1 C 87 % 16.89 C
13 29-07-2018 01:00:00 19 C 87 % 16.79 C
14 29-07-2018 01:05:00 18.9 C 88 % 16.87 C
15 29-07-2018 01:10:00 18.8 C 88 % 16.77 C
16 29-07-2018 01:15:00 18.7 C 88 % 16.67 C
17 29-07-2018 01:20:00 18.7 C 88 % 16.67 C
18 29-07-2018 01:25:00 18.5 C 88 % 16.48 C
19 29-07-2018 01:30:00 18.4 C 88 % 16.38 C
20 29-07-2018 01:35:00 18.3 C 88 % 16.28 C
21 29-07-2018 01:40:00 18.2 C 88 % 16.18 C
22 29-07-2018 01:45:00 18.1 C 88 % 16.08 C
23 29-07-2018 01:50:00 18 C 88 % 15.98 C
24 29-07-2018 01:55:00 17.9 C 88 % 15.88 C
25 29-07-2018 02:00:00 17.9 C 88 % 15.88 C
Sensor: Nr:Datum:Temp:Feuchte:Taupunkt:
Aussen-T/F 26 29-07-2018 02:05:00 17.9 C 87 % 15.71 C
27 29-07-2018 02:10:00 17.9 C 88 % 15.88 C
28 29-07-2018 02:15:00 17.9 C 88 % 15.88 C
29 29-07-2018 02:20:00 17.8 C 87 % 15.61 C
30 29-07-2018 02:25:00 17.8 C 87 % 15.61 C
31 29-07-2018 02:30:00 17.7 C 88 % 15.69 C
32 29-07-2018 02:35:00 17.6 C 87 % 15.41 C
33 29-07-2018 02:40:00 17.5 C 87 % 15.31 C
34 29-07-2018 02:45:00 17.5 C 88 % 15.49 C
35 29-07-2018 02:50:00 17.4 C 88 % 15.39 C
36 29-07-2018 02:55:00 17.4 C 88 % 15.39 C
37 29-07-2018 03:00:00 17.3 C 88 % 15.29 C
38 29-07-2018 03:05:00 17.2 C 88 % 15.2 C
39 29-07-2018 03:10:00 17.2 C 89 % 15.37 C
40 29-07-2018 03:15:00 17.2 C 89 % 15.37 C
41 29-07-2018 03:20:00 17.1 C 88 % 15.1 C
42 29-07-2018 03:25:00 17 C 89 % 15.17 C
43 29-07-2018 03:30:00 17 C 89 % 15.17 C
44 29-07-2018 03:35:00 16.9 C 89 % 15.08 C
45 29-07-2018 03:40:00 16.9 C 89 % 15.08 C
46 29-07-2018 03:45:00 16.8 C 89 % 14.98 C
47 29-07-2018 03:50:00 16.7 C 88 % 14.7 C
48 29-07-2018 03:55:00 16.6 C 89 % 14.78 C
49 29-07-2018 04:00:00 16.5 C 88 % 14.51 C
50 29-07-2018 04:05:00 16.4 C 89 % 14.58 C
Sensor: Nr:Datum:Temp:Feuchte:Taupunkt:
Aussen-T/F 51 29-07-2018 04:10:00 16.4 C 89 % 14.58 C
52 29-07-2018 04:15:00 16.4 C 89 % 14.58 C
53 29-07-2018 04:20:00 16.4 C 89 % 14.58 C
54 29-07-2018 04:25:00 16.3 C 88 % 14.31 C
55 29-07-2018 04:30:00 16.3 C 89 % 14.48 C
56 29-07-2018 04:35:00 16.4 C 89 % 14.58 C
57 29-07-2018 04:40:00 16.4 C 89 % 14.58 C
58 29-07-2018 04:45:00 16.4 C 89 % 14.58 C
59 29-07-2018 04:50:00 16.4 C 89 % 14.58 C
60 29-07-2018 04:55:00 16.4 C 89 % 14.58 C
61 29-07-2018 05:00:00 16.5 C 89 % 14.68 C
62 29-07-2018 05:05:00 16.6 C 89 % 14.78 C
63 29-07-2018 05:10:00 16.6 C 89 % 14.78 C
64 29-07-2018 05:15:00 16.6 C 89 % 14.78 C
65 29-07-2018 05:20:00 16.7 C 90 % 15.05 C
66 29-07-2018 05:25:00 16.7 C 89 % 14.88 C
67 29-07-2018 05:30:00 16.7 C 89 % 14.88 C
68 29-07-2018 05:35:00 16.7 C 89 % 14.88 C
69 29-07-2018 05:40:00 16.7 C 90 % 15.05 C
70 29-07-2018 05:45:00 16.7 C 89 % 14.88 C
71 29-07-2018 05:50:00 16.7 C 90 % 15.05 C
72 29-07-2018 05:55:00 16.7 C 90 % 15.05 C
73 29-07-2018 06:00:00 16.7 C 90 % 15.05 C
74 29-07-2018 06:05:00 16.6 C 89 % 14.78 C
75 29-07-2018 06:10:00 16.6 C 90 % 14.95 C
Sensor: Nr:Datum:Temp:Feuchte:Taupunkt:
Aussen-T/F 76 29-07-2018 06:15:00 16.6 C 90 % 14.95 C
77 29-07-2018 06:20:00 16.6 C 90 % 14.95 C
78 29-07-2018 06:25:00 16.6 C 90 % 14.95 C
79 29-07-2018 06:30:00 16.7 C 90 % 15.05 C
80 29-07-2018 06:35:00 16.7 C 90 % 15.05 C
81 29-07-2018 06:40:00 16.8 C 90 % 15.15 C
82 29-07-2018 06:45:00 16.8 C 89 % 14.98 C
83 29-07-2018 06:50:00 16.9 C 89 % 15.08 C
84 29-07-2018 06:55:00 16.9 C 89 % 15.08 C
85 29-07-2018 07:00:00 17 C 90 % 15.35 C
86 29-07-2018 07:05:00 17.1 C 90 % 15.45 C
87 29-07-2018 07:10:00 17.1 C 90 % 15.45 C
88 29-07-2018 07:15:00 17.2 C 90 % 15.55 C
89 29-07-2018 07:20:00 17.2 C 90 % 15.55 C
90 29-07-2018 07:25:00 17.3 C 90 % 15.64 C
91 29-07-2018 07:30:00 17.3 C 90 % 15.64 C
92 29-07-2018 07:35:00 17.4 C 90 % 15.74 C
93 29-07-2018 07:40:00 17.4 C 90 % 15.74 C
94 29-07-2018 07:45:00 17.5 C 90 % 15.84 C
95 29-07-2018 07:50:00 17.6 C 90 % 15.94 C
96 29-07-2018 07:55:00 17.7 C 89 % 15.86 C
97 29-07-2018 08:00:00 17.7 C 89 % 15.86 C
98 29-07-2018 08:05:00 17.8 C 89 % 15.96 C
99 29-07-2018 08:10:00 17.9 C 89 % 16.06 C
100 29-07-2018 08:15:00 18 C 89 % 16.16 C
Sensor: Nr:Datum:Temp:Feuchte:Taupunkt:
Aussen-T/F 101 29-07-2018 08:20:00 18 C 89 % 16.16 C
102 29-07-2018 08:25:00 18 C 88 % 15.98 C
103 29-07-2018 08:30:00 17.9 C 88 % 15.88 C
104 29-07-2018 08:35:00 18 C 88 % 15.98 C
105 29-07-2018 08:40:00 18 C 88 % 15.98 C
106 29-07-2018 08:45:00 18.1 C 88 % 16.08 C
107 29-07-2018 08:50:00 18.3 C 88 % 16.28 C
108 29-07-2018 08:55:00 18.4 C 89 % 16.55 C
109 29-07-2018 09:00:00 18.7 C 88 % 16.67 C
110 29-07-2018 09:05:00 18.9 C 86 % 16.51 C
111 29-07-2018 09:10:00 19.2 C 86 % 16.8 C
112 29-07-2018 09:15:00 19.6 C 85 % 17.01 C
113 29-07-2018 09:20:00 19.8 C 85 % 17.21 C
114 29-07-2018 09:25:00 20.1 C 83 % 17.12 C
115 29-07-2018 09:30:00 20.4 C 82 % 17.22 C
116 29-07-2018 09:35:00 20.7 C 80 % 17.13 C
117 29-07-2018 09:40:00 21 C 81 % 17.61 C
118 29-07-2018 09:45:00 21.3 C 80 % 17.71 C
119 29-07-2018 09:50:00 21.6 C 78 % 17.6 C
120 29-07-2018 09:55:00 21.8 C 76 % 17.38 C
121 29-07-2018 10:00:00 22.1 C 72 % 16.82 C
122 29-07-2018 10:05:00 22.3 C 72 % 17.01 C
123 29-07-2018 10:10:00 22.6 C 67 % 16.16 C
124 29-07-2018 10:15:00 22.9 C 74 % 18.02 C
125 29-07-2018 10:20:00 22.9 C 69 % 16.91 C
Sensor: Nr:Datum:Temp:Feuchte:Taupunkt:
Aussen-T/F 126 29-07-2018 10:25:00 23.1 C 66 % 16.4 C
127 29-07-2018 10:30:00 23.4 C 70 % 17.62 C
128 29-07-2018 10:35:00 23.6 C 64 % 16.39 C
129 29-07-2018 10:40:00 23.8 C 61 % 15.83 C
130 29-07-2018 10:45:00 24.1 C 65 % 17.11 C
131 29-07-2018 10:50:00 24.3 C 63 % 16.81 C
132 29-07-2018 10:55:00 24.4 C 60 % 16.13 C
133 29-07-2018 11:00:00 24.5 C 60 % 16.23 C
134 29-07-2018 11:05:00 24.5 C 59 % 15.96 C
135 29-07-2018 11:10:00 24.6 C 59 % 16.06 C
136 29-07-2018 11:15:00 24.7 C 59 % 16.15 C
137 29-07-2018 11:20:00 24.8 C 61 % 16.77 C
138 29-07-2018 11:25:00 25 C 56 % 15.61 C
139 29-07-2018 11:30:00 25.2 C 57 % 16.08 C
140 29-07-2018 11:35:00 25.4 C 56 % 15.99 C
141 29-07-2018 11:40:00 25.7 C 57 % 16.54 C
142 29-07-2018 11:45:00 25.8 C 55 % 16.07 C
143 29-07-2018 11:50:00 26 C 57 % 16.82 C
144 29-07-2018 11:55:00 26.3 C 54 % 16.25 C
145 29-07-2018 12:00:00 26.5 C 56 % 17.01 C
146 29-07-2018 12:05:00 26.7 C 54 % 16.62 C
147 29-07-2018 12:10:00 26.9 C 52 % 16.21 C
148 29-07-2018 12:15:00 27.1 C 53 % 16.7 C
149 29-07-2018 12:20:00 27.2 C 49 % 15.56 C
150 29-07-2018 12:25:00 27.2 C 50 % 15.87 C
Sensor: Nr:Datum:Temp:Feuchte:Taupunkt:
Aussen-T/F 151 29-07-2018 12:30:00 27.2 C 50 % 15.87 C
152 29-07-2018 12:35:00 27.2 C 49 % 15.56 C
153 29-07-2018 12:40:00 27.3 C 49 % 15.65 C
154 29-07-2018 12:45:00 27.3 C 48 % 15.33 C
155 29-07-2018 12:50:00 27.2 C 47 % 14.91 C
156 29-07-2018 12:55:00 27.2 C 49 % 15.56 C
157 29-07-2018 13:00:00 27.3 C 47 % 15 C
158 29-07-2018 13:05:00 27.4 C 49 % 15.74 C
159 29-07-2018 13:10:00 27.5 C 45 % 14.51 C
160 29-07-2018 13:15:00 27.6 C 46 % 14.94 C
161 29-07-2018 13:20:00 27.6 C 46 % 14.94 C
162 29-07-2018 13:25:00 27.8 C 48 % 15.78 C
163 29-07-2018 13:30:00 27.8 C 46 % 15.12 C
164 29-07-2018 13:35:00 28 C 49 % 16.29 C
165 29-07-2018 13:40:00 28.1 C 47 % 15.73 C
166 29-07-2018 13:45:00 28.1 C 47 % 15.73 C
167 29-07-2018 13:50:00 28.1 C 46 % 15.39 C
168 29-07-2018 13:55:00 28.1 C 47 % 15.73 C
169 29-07-2018 14:00:00 28.3 C 47 % 15.91 C
170 29-07-2018 14:05:00 28.5 C 48 % 16.42 C
171 29-07-2018 14:10:00 28.6 C 46 % 15.85 C
172 29-07-2018 14:15:00 28.6 C 47 % 16.18 C
173 29-07-2018 14:20:00 28.7 C 47 % 16.27 C
174 29-07-2018 14:25:00 28.7 C 47 % 16.27 C
175 29-07-2018 14:30:00 28.6 C 49 % 16.84 C
Sensor: Nr:Datum:Temp:Feuchte:Taupunkt:
Aussen-T/F 176 29-07-2018 14:35:00 28.7 C 47 % 16.27 C
177 29-07-2018 14:40:00 28.7 C 46 % 15.94 C
178 29-07-2018 14:45:00 28.8 C 46 % 16.03 C
179 29-07-2018 14:50:00 28.7 C 45 % 15.59 C
180 29-07-2018 14:55:00 28.8 C 47 % 16.36 C
181 29-07-2018 15:00:00 28.9 C 46 % 16.12 C
182 29-07-2018 15:05:00 29.2 C 44 % 15.69 C
183 29-07-2018 15:10:00 29.4 C 43 % 15.51 C
184 29-07-2018 15:15:00 29.5 C 42 % 15.24 C
185 29-07-2018 15:20:00 29.5 C 44 % 15.96 C
186 29-07-2018 15:25:00 29.6 C 44 % 16.05 C
187 29-07-2018 15:30:00 29.8 C 42 % 15.51 C
188 29-07-2018 15:35:00 30 C 42 % 15.69 C
189 29-07-2018 15:40:00 30.2 C 41 % 15.49 C
190 29-07-2018 15:45:00 30.3 C 41 % 15.58 C
191 29-07-2018 15:50:00 30.4 C 39 % 14.89 C
192 29-07-2018 15:55:00 30.8 C 40 % 15.64 C
193 29-07-2018 16:00:00 30.9 C 38 % 14.93 C
194 29-07-2018 16:05:00 30.8 C 41 % 16.02 C
195 29-07-2018 16:10:00 30.7 C 38 % 14.75 C
196 29-07-2018 16:15:00 30.8 C 39 % 15.24 C
197 29-07-2018 16:20:00 31 C 37 % 14.6 C
198 29-07-2018 16:25:00 31.1 C 38 % 15.1 C
199 29-07-2018 16:30:00 31 C 36 % 14.18 C
200 29-07-2018 16:35:00 31.2 C 37 % 14.78 C
Sensor: Nr:Datum:Temp:Feuchte:Taupunkt:
Aussen-T/F 201 29-07-2018 16:40:00 31.4 C 37 % 14.96 C
202 29-07-2018 16:45:00 31.6 C 36 % 14.71 C
203 29-07-2018 16:50:00 31.6 C 36 % 14.71 C
204 29-07-2018 16:55:00 31.6 C 39 % 15.95 C
205 29-07-2018 17:00:00 31.7 C 36 % 14.79 C
206 29-07-2018 17:05:00 31.8 C 38 % 15.72 C
207 29-07-2018 17:10:00 32.2 C 35 % 14.8 C
208 29-07-2018 17:15:00 32.1 C 34 % 14.26 C
209 29-07-2018 17:20:00 31.4 C 36 % 14.53 C
210 29-07-2018 17:25:00 31.1 C 36 % 14.27 C
211 29-07-2018 17:30:00 30.9 C 39 % 15.33 C
212 29-07-2018 17:35:00 31.1 C 38 % 15.1 C
213 29-07-2018 17:40:00 31.8 C 36 % 14.88 C
214 29-07-2018 17:45:00 32.4 C 35 % 14.97 C
215 29-07-2018 17:50:00 32.6 C 35 % 15.15 C
216 29-07-2018 17:55:00 32.4 C 35 % 14.97 C
217 29-07-2018 18:00:00 32.3 C 36 % 15.32 C
218 29-07-2018 18:05:00 32.3 C 37 % 15.75 C
219 29-07-2018 18:10:00 32.4 C 35 % 14.97 C
220 29-07-2018 18:15:00 32.6 C 35 % 15.15 C
221 29-07-2018 18:20:00 32.7 C 36 % 15.67 C
222 29-07-2018 18:25:00 32.7 C 34 % 14.78 C
223 29-07-2018 18:30:00 32.7 C 35 % 15.23 C
224 29-07-2018 18:35:00 32.8 C 35 % 15.32 C
225 29-07-2018 18:40:00 32.9 C 35 % 15.41 C
Sensor: Nr:Datum:Temp:Feuchte:Taupunkt:
Aussen-T/F 226 29-07-2018 18:45:00 32.8 C 36 % 15.76 C
227 29-07-2018 18:50:00 32.7 C 36 % 15.67 C
228 29-07-2018 18:55:00 32.7 C 35 % 15.23 C
229 29-07-2018 19:00:00 32.6 C 37 % 16.01 C
230 29-07-2018 19:05:00 32.5 C 37 % 15.92 C
231 29-07-2018 19:10:00 32.2 C 37 % 15.66 C
232 29-07-2018 19:15:00 31.8 C 40 % 16.53 C
233 29-07-2018 19:20:00 31.4 C 38 % 15.37 C
234 29-07-2018 19:25:00 31.2 C 39 % 15.6 C
235 29-07-2018 19:30:00 31.1 C 39 % 15.51 C
236 29-07-2018 19:35:00 31 C 40 % 15.82 C
237 29-07-2018 19:40:00 31.1 C 39 % 15.51 C
238 29-07-2018 19:45:00 31.1 C 41 % 16.29 C
239 29-07-2018 19:50:00 31.2 C 42 % 16.76 C
240 29-07-2018 19:55:00 31.3 C 43 % 17.22 C
241 29-07-2018 20:00:00 31.2 C 42 % 16.76 C
242 29-07-2018 20:05:00 31.1 C 46 % 18.11 C
243 29-07-2018 20:10:00 30.8 C 46 % 17.84 C
244 29-07-2018 20:15:00 30.5 C 47 % 17.91 C
245 29-07-2018 20:20:00 30.1 C 49 % 18.21 C
246 29-07-2018 20:25:00 29.7 C 49 % 17.84 C
247 29-07-2018 20:30:00 29.3 C 51 % 18.11 C
248 29-07-2018 20:35:00 28.9 C 51 % 17.74 C
249 29-07-2018 20:40:00 28.5 C 53 % 17.99 C
250 29-07-2018 20:45:00 28.1 C 52 % 17.32 C
Sensor: Nr:Datum:Temp:Feuchte:Taupunkt:
Aussen-T/F 251 29-07-2018 20:50:00 27.7 C 54 % 17.55 C
252 29-07-2018 20:55:00 27.3 C 52 % 16.58 C
253 29-07-2018 21:00:00 26.8 C 53 % 16.42 C
254 29-07-2018 21:05:00 26.4 C 54 % 16.34 C
255 29-07-2018 21:10:00 26.1 C 57 % 16.92 C
256 29-07-2018 21:15:00 25.7 C 57 % 16.54 C
257 29-07-2018 21:20:00 25.4 C 58 % 16.54 C
258 29-07-2018 21:25:00 25.1 C 59 % 16.52 C
259 29-07-2018 21:30:00 24.8 C 60 % 16.51 C
260 29-07-2018 21:35:00 24.4 C 62 % 16.65 C
261 29-07-2018 21:40:00 24.2 C 62 % 16.46 C
262 29-07-2018 21:45:00 23.9 C 63 % 16.43 C
263 29-07-2018 21:50:00 23.7 C 63 % 16.24 C
264 29-07-2018 21:55:00 23.4 C 64 % 16.2 C
265 29-07-2018 22:00:00 23.2 C 65 % 16.26 C
266 29-07-2018 22:05:00 23 C 66 % 16.31 C
267 29-07-2018 22:10:00 22.8 C 68 % 16.59 C
268 29-07-2018 22:15:00 22.7 C 68 % 16.49 C
269 29-07-2018 22:20:00 22.4 C 67 % 15.97 C
270 29-07-2018 22:25:00 22.3 C 68 % 16.11 C
271 29-07-2018 22:30:00 22.2 C 67 % 15.78 C
272 29-07-2018 22:35:00 22 C 67 % 15.59 C
273 29-07-2018 22:40:00 21.8 C 68 % 15.63 C
274 29-07-2018 22:45:00 21.7 C 68 % 15.54 C
275 29-07-2018 22:50:00 21.6 C 68 % 15.44 C
Sensor: Nr:Datum:Temp:Feuchte:Taupunkt:
Aussen-T/F 276 29-07-2018 22:55:00 21.5 C 68 % 15.35 C
277 29-07-2018 23:00:00 21.3 C 69 % 15.38 C
278 29-07-2018 23:05:00 21.2 C 70 % 15.51 C
279 29-07-2018 23:10:00 21.1 C 70 % 15.42 C
280 29-07-2018 23:15:00 21 C 69 % 15.1 C
281 29-07-2018 23:20:00 20.9 C 70 % 15.23 C
282 29-07-2018 23:25:00 20.8 C 71 % 15.35 C
283 29-07-2018 23:30:00 20.7 C 72 % 15.47 C
284 29-07-2018 23:35:00 20.5 C 72 % 15.28 C
285 29-07-2018 23:40:00 20.3 C 73 % 15.3 C
286 29-07-2018 23:45:00 20.1 C 72 % 14.9 C
287 29-07-2018 23:50:00 20 C 73 % 15.01 C
288 29-07-2018 23:55:00 19.8 C 72 % 14.61 C
289 30-07-2018 00:00:00 19.8 C 73 % 14.82 C
290 30-07-2018 00:05:00 19.7 C 75 % 15.15 C
291 30-07-2018 00:10:00 19.6 C 75 % 15.05 C
292 30-07-2018 00:15:00 19.5 C 75 % 14.95 C
293 30-07-2018 00:20:00 19.4 C 75 % 14.86 C
294 30-07-2018 00:25:00 19.3 C 75 % 14.76 C
295 30-07-2018 00:30:00 19.2 C 75 % 14.66 C
296 30-07-2018 00:35:00 19.2 C 73 % 14.25 C
297 30-07-2018 00:40:00 19.2 C 73 % 14.25 C
298 30-07-2018 00:45:00 19.2 C 74 % 14.46 C
299 30-07-2018 00:50:00 19.2 C 75 % 14.66 C
300 30-07-2018 00:55:00 19.2 C 75 % 14.66 C
Sensor: Nr:Datum:Temp:Feuchte:Taupunkt:
Aussen-T/F 301 30-07-2018 01:00:00 19.2 C 75 % 14.66 C
302 30-07-2018 01:05:00 19.2 C 76 % 14.87 C
303 30-07-2018 01:10:00 19.2 C 77 % 15.07 C
304 30-07-2018 01:15:00 19.1 C 74 % 14.36 C
305 30-07-2018 01:20:00 19.2 C 77 % 15.07 C
306 30-07-2018 01:25:00 19.2 C 75 % 14.66 C
307 30-07-2018 01:30:00 19.1 C 76 % 14.77 C
308 30-07-2018 01:35:00 19 C 76 % 14.68 C
309 30-07-2018 01:40:00 18.9 C 76 % 14.58 C
310 30-07-2018 01:45:00 18.8 C 74 % 14.07 C
311 30-07-2018 01:50:00 18.7 C 76 % 14.39 C
312 30-07-2018 01:55:00 18.7 C 77 % 14.59 C
313 30-07-2018 02:00:00 18.5 C 77 % 14.39 C
314 30-07-2018 02:05:00 18.4 C 78 % 14.5 C
315 30-07-2018 02:10:00 18.3 C 78 % 14.4 C
316 30-07-2018 02:15:00 18.3 C 78 % 14.4 C
317 30-07-2018 02:20:00 18.3 C 79 % 14.6 C
318 30-07-2018 02:25:00 18.2 C 79 % 14.5 C
319 30-07-2018 02:30:00 18.2 C 78 % 14.3 C
320 30-07-2018 02:35:00 18.1 C 79 % 14.4 C
321 30-07-2018 02:40:00 18.1 C 79 % 14.4 C
322 30-07-2018 02:45:00 18 C 80 % 14.5 C
323 30-07-2018 02:50:00 17.9 C 80 % 14.4 C
324 30-07-2018 02:55:00 17.9 C 81 % 14.59 C
325 30-07-2018 03:00:00 17.8 C 81 % 14.5 C
Sensor: Nr:Datum:Temp:Feuchte:Taupunkt:
Aussen-T/F 326 30-07-2018 03:05:00 17.8 C 81 % 14.5 C
327 30-07-2018 03:10:00 17.8 C 81 % 14.5 C
328 30-07-2018 03:15:00 17.8 C 81 % 14.5 C
329 30-07-2018 03:20:00 17.8 C 81 % 14.5 C
330 30-07-2018 03:25:00 17.8 C 81 % 14.5 C
331 30-07-2018 03:30:00 17.7 C 81 % 14.4 C
332 30-07-2018 03:35:00 17.7 C 81 % 14.4 C
333 30-07-2018 03:40:00 17.6 C 81 % 14.3 C
334 30-07-2018 03:45:00 17.5 C 81 % 14.2 C
335 30-07-2018 03:50:00 17.4 C 82 % 14.3 C
336 30-07-2018 03:55:00 17.3 C 82 % 14.2 C
337 30-07-2018 04:00:00 17.2 C 82 % 14.1 C
338 30-07-2018 04:05:00 17.3 C 82 % 14.2 C
339 30-07-2018 04:10:00 17.3 C 82 % 14.2 C
340 30-07-2018 04:15:00 17.4 C 82 % 14.3 C
341 30-07-2018 04:20:00 17.4 C 82 % 14.3 C
342 30-07-2018 04:25:00 17.3 C 82 % 14.2 C
343 30-07-2018 04:30:00 17.2 C 82 % 14.1 C
344 30-07-2018 04:35:00 17.1 C 83 % 14.19 C
345 30-07-2018 04:40:00 17.1 C 83 % 14.19 C
346 30-07-2018 04:45:00 16.9 C 83 % 14 C
347 30-07-2018 04:50:00 16.9 C 83 % 14 C
348 30-07-2018 04:55:00 16.8 C 83 % 13.9 C
349 30-07-2018 05:00:00 16.7 C 82 % 13.61 C
350 30-07-2018 05:05:00 16.6 C 83 % 13.7 C
Sensor: Nr:Datum:Temp:Feuchte:Taupunkt:
Aussen-T/F 351 30-07-2018 05:10:00 16.6 C 83 % 13.7 C
352 30-07-2018 05:15:00 16.4 C 83 % 13.51 C
353 30-07-2018 05:20:00 16.4 C 84 % 13.69 C
354 30-07-2018 05:25:00 16.3 C 84 % 13.59 C
355 30-07-2018 05:30:00 16.3 C 84 % 13.59 C
356 30-07-2018 05:35:00 16.2 C 85 % 13.68 C
357 30-07-2018 05:40:00 16.2 C 85 % 13.68 C
358 30-07-2018 05:45:00 16.2 C 85 % 13.68 C
359 30-07-2018 05:50:00 16.1 C 85 % 13.58 C
360 30-07-2018 05:55:00 16 C 86 % 13.66 C
361 30-07-2018 06:00:00 16 C 86 % 13.66 C
362 30-07-2018 06:05:00 16.1 C 86 % 13.76 C
363 30-07-2018 06:10:00 16.1 C 86 % 13.76 C
364 30-07-2018 06:15:00 16.1 C 86 % 13.76 C
365 30-07-2018 06:20:00 16.1 C 86 % 13.76 C
366 30-07-2018 06:25:00 16.1 C 86 % 13.76 C
367 30-07-2018 06:30:00 16.1 C 86 % 13.76 C
368 30-07-2018 06:35:00 16.2 C 87 % 14.03 C
369 30-07-2018 06:40:00 16.3 C 87 % 14.13 C
370 30-07-2018 06:45:00 16.4 C 87 % 14.23 C
371 30-07-2018 06:50:00 16.5 C 87 % 14.33 C
372 30-07-2018 06:55:00 16.7 C 87 % 14.53 C
373 30-07-2018 07:00:00 16.8 C 86 % 14.45 C
374 30-07-2018 07:05:00 16.9 C 86 % 14.54 C
375 30-07-2018 07:10:00 17.1 C 84 % 14.38 C
Sensor: Nr:Datum:Temp:Feuchte:Taupunkt:
Aussen-T/F 376 30-07-2018 07:15:00 17.2 C 84 % 14.47 C
377 30-07-2018 07:20:00 17.3 C 84 % 14.57 C
378 30-07-2018 07:25:00 17.6 C 85 % 15.05 C
379 30-07-2018 07:30:00 17.7 C 85 % 15.15 C
380 30-07-2018 07:35:00 17.8 C 83 % 14.88 C
381 30-07-2018 07:40:00 17.9 C 84 % 15.16 C
382 30-07-2018 07:45:00 18.1 C 84 % 15.35 C
383 30-07-2018 07:50:00 18.1 C 83 % 15.17 C
384 30-07-2018 07:55:00 18.2 C 85 % 15.64 C
385 30-07-2018 08:00:00 18.2 C 84 % 15.45 C
386 30-07-2018 08:05:00 18.2 C 84 % 15.45 C
387 30-07-2018 08:10:00 18.2 C 84 % 15.45 C
388 30-07-2018 08:15:00 18.2 C 84 % 15.45 C
389 30-07-2018 08:20:00 18.2 C 83 % 15.27 C
390 30-07-2018 08:25:00 18.3 C 83 % 15.36 C
391 30-07-2018 08:30:00 18.3 C 83 % 15.36 C
392 30-07-2018 08:35:00 18.4 C 84 % 15.65 C
393 30-07-2018 08:40:00 18.5 C 84 % 15.75 C
394 30-07-2018 08:45:00 18.7 C 84 % 15.94 C
395 30-07-2018 08:50:00 18.8 C 84 % 16.04 C
396 30-07-2018 08:55:00 19 C 84 % 16.24 C
397 30-07-2018 09:00:00 19.1 C 81 % 15.76 C
398 30-07-2018 09:05:00 19.4 C 83 % 16.44 C
399 30-07-2018 09:10:00 19.7 C 82 % 16.54 C
400 30-07-2018 09:15:00 19.9 C 80 % 16.35 C
Sensor: Nr:Datum:Temp:Feuchte:Taupunkt:
Aussen-T/F 401 30-07-2018 09:20:00 20.2 C 78 % 16.24 C
402 30-07-2018 09:25:00 20.5 C 80 % 16.93 C
403 30-07-2018 09:30:00 20.7 C 78 % 16.73 C
404 30-07-2018 09:35:00 20.9 C 78 % 16.92 C
405 30-07-2018 09:40:00 21.1 C 74 % 16.29 C
406 30-07-2018 09:45:00 21.3 C 76 % 16.9 C
407 30-07-2018 09:50:00 21.4 C 72 % 16.14 C
408 30-07-2018 09:55:00 21.7 C 75 % 17.07 C
409 30-07-2018 10:00:00 21.8 C 70 % 16.09 C
410 30-07-2018 10:05:00 22 C 73 % 16.94 C
411 30-07-2018 10:10:00 22.2 C 74 % 17.34 C
412 30-07-2018 10:15:00 22.2 C 70 % 16.47 C
413 30-07-2018 10:20:00 22.3 C 72 % 17.01 C
414 30-07-2018 10:25:00 22.4 C 68 % 16.2 C
415 30-07-2018 10:30:00 22.9 C 69 % 16.91 C
416 30-07-2018 10:35:00 23.3 C 65 % 16.35 C
417 30-07-2018 10:40:00 23.8 C 68 % 17.54 C
418 30-07-2018 10:45:00 24.2 C 62 % 16.46 C
419 30-07-2018 10:50:00 24.7 C 63 % 17.18 C
420 30-07-2018 10:55:00 24.9 C 59 % 16.34 C
421 30-07-2018 11:00:00 25.2 C 60 % 16.88 C
422 30-07-2018 11:05:00 25.3 C 58 % 16.44 C
423 30-07-2018 11:10:00 25.5 C 63 % 17.94 C
424 30-07-2018 11:15:00 25.7 C 63 % 18.13 C
425 30-07-2018 11:20:00 25.7 C 58 % 16.82 C
Sensor: Nr:Datum:Temp:Feuchte:Taupunkt:
Aussen-T/F 426 30-07-2018 11:25:00 25.9 C 55 % 16.17 C
427 30-07-2018 11:30:00 26.3 C 57 % 17.1 C
428 30-07-2018 11:35:00 26.4 C 58 % 17.47 C
429 30-07-2018 11:40:00 26.7 C 53 % 16.33 C
430 30-07-2018 11:45:00 27.1 C 53 % 16.7 C
431 30-07-2018 11:50:00 27.4 C 51 % 16.37 C
432 30-07-2018 11:55:00 27.9 C 49 % 16.2 C
433 30-07-2018 12:00:00 28.1 C 49 % 16.38 C
434 30-07-2018 12:05:00 28.3 C 50 % 16.88 C
435 30-07-2018 12:10:00 28.5 C 49 % 16.75 C
436 30-07-2018 12:15:00 28.6 C 47 % 16.18 C
437 30-07-2018 12:20:00 28.7 C 48 % 16.6 C
438 30-07-2018 12:25:00 28.8 C 48 % 16.69 C
439 30-07-2018 12:30:00 28.8 C 48 % 16.69 C
440 30-07-2018 12:35:00 28.9 C 46 % 16.12 C
441 30-07-2018 12:40:00 29.1 C 51 % 17.93 C
442 30-07-2018 12:45:00 29.1 C 47 % 16.64 C
443 30-07-2018 12:50:00 29.2 C 48 % 17.06 C
444 30-07-2018 12:55:00 29.2 C 48 % 17.06 C
445 30-07-2018 13:00:00 29.3 C 48 % 17.15 C
446 30-07-2018 13:05:00 29.4 C 47 % 16.91 C
447 30-07-2018 13:10:00 29.5 C 46 % 16.66 C
448 30-07-2018 13:15:00 29.4 C 50 % 17.89 C
449 30-07-2018 13:20:00 29.4 C 50 % 17.89 C
450 30-07-2018 13:25:00 29.4 C 52 % 18.51 C
Sensor: Nr:Datum:Temp:Feuchte:Taupunkt:
Aussen-T/F 451 30-07-2018 13:30:00 29.3 C 51 % 18.11 C
452 30-07-2018 13:35:00 29.3 C 47 % 16.82 C
453 30-07-2018 13:40:00 29.4 C 49 % 17.57 C
454 30-07-2018 13:45:00 29.6 C 47 % 17.09 C
455 30-07-2018 13:50:00 29.7 C 46 % 16.84 C
456 30-07-2018 13:55:00 29.8 C 48 % 17.61 C
457 30-07-2018 14:00:00 29.9 C 47 % 17.36 C
458 30-07-2018 14:05:00 30 C 45 % 16.77 C
459 30-07-2018 14:10:00 30.1 C 45 % 16.86 C
460 30-07-2018 14:15:00 30.2 C 52 % 19.25 C
461 30-07-2018 14:20:00 30.2 C 48 % 17.97 C
462 30-07-2018 14:25:00 30.3 C 45 % 17.04 C
463 30-07-2018 14:30:00 30.4 C 43 % 16.41 C
464 30-07-2018 14:35:00 30.6 C 45 % 17.31 C
465 30-07-2018 14:40:00 30.6 C 52 % 19.62 C
466 30-07-2018 14:45:00 30.6 C 48 % 18.33 C
467 30-07-2018 14:50:00 30.6 C 46 % 17.66 C
468 30-07-2018 14:55:00 30.6 C 54 % 20.23 C
469 30-07-2018 15:00:00 30.5 C 54 % 20.13 C
470 30-07-2018 15:05:00 30.3 C 55 % 20.25 C
471 30-07-2018 15:10:00 30.2 C 47 % 17.64 C
472 30-07-2018 15:15:00 30.3 C 48 % 18.06 C
473 30-07-2018 15:20:00 30.4 C 47 % 17.82 C
474 30-07-2018 15:25:00 30.7 C 43 % 16.68 C
475 30-07-2018 15:30:00 31 C 44 % 17.31 C
Sensor: Nr:Datum:Temp:Feuchte:Taupunkt:
Aussen-T/F 476 30-07-2018 15:35:00 31.4 C 42 % 16.94 C
477 30-07-2018 15:40:00 31.7 C 41 % 16.83 C
478 30-07-2018 15:45:00 31.9 C 41 % 17.01 C
479 30-07-2018 15:50:00 31.9 C 41 % 17.01 C
480 30-07-2018 15:55:00 31.9 C 41 % 17.01 C
481 30-07-2018 16:00:00 31.8 C 43 % 17.67 C
482 30-07-2018 16:05:00 31.8 C 45 % 18.39 C
483 30-07-2018 16:10:00 31.9 C 42 % 17.39 C
484 30-07-2018 16:15:00 32 C 42 % 17.48 C
485 30-07-2018 16:20:00 32 C 41 % 17.09 C
486 30-07-2018 16:25:00 32 C 44 % 18.21 C
487 30-07-2018 16:30:00 32.1 C 45 % 18.66 C
488 30-07-2018 16:35:00 32.2 C 48 % 19.79 C
489 30-07-2018 16:40:00 32.2 C 52 % 21.09 C
490 30-07-2018 16:45:00 32.2 C 51 % 20.77 C
491 30-07-2018 16:50:00 32.2 C 48 % 19.79 C
492 30-07-2018 16:55:00 32.2 C 46 % 19.11 C
493 30-07-2018 17:00:00 32.2 C 43 % 18.03 C
494 30-07-2018 17:05:00 32.2 C 45 % 18.75 C
495 30-07-2018 17:10:00 32.1 C 49 % 20.03 C
496 30-07-2018 17:15:00 31.9 C 52 % 20.81 C
497 30-07-2018 17:20:00 31.9 C 45 % 18.48 C
498 30-07-2018 17:25:00 32.6 C 40 % 17.24 C
499 30-07-2018 17:30:00 33.1 C 40 % 17.68 C
500 30-07-2018 17:35:00 33.4 C 38 % 17.14 C
Sensor: Nr:Datum:Temp:Feuchte:Taupunkt:
Aussen-T/F 501 30-07-2018 17:40:00 33.2 C 39 % 17.37 C
502 30-07-2018 17:45:00 33.1 C 44 % 19.2 C
503 30-07-2018 17:50:00 33.2 C 38 % 16.96 C
504 30-07-2018 17:55:00 33.6 C 38 % 17.31 C
505 30-07-2018 18:00:00 34.1 C 37 % 17.33 C
506 30-07-2018 18:05:00 34.4 C 36 % 17.16 C
507 30-07-2018 18:10:00 34.7 C 36 % 17.43 C
508 30-07-2018 18:15:00 34.8 C 35 % 17.07 C
509 30-07-2018 18:20:00 34.5 C 35 % 16.81 C
510 30-07-2018 18:25:00 34.2 C 39 % 18.26 C
511 30-07-2018 18:30:00 33.9 C 43 % 19.55 C
512 30-07-2018 18:35:00 33.6 C 45 % 20.02 C
513 30-07-2018 18:40:00 33.1 C 50 % 21.27 C
514 30-07-2018 18:45:00 32.4 C 49 % 20.31 C
515 30-07-2018 18:50:00 31.9 C 49 % 19.85 C
516 30-07-2018 18:55:00 31.6 C 50 % 19.9 C
517 30-07-2018 19:00:00 31.4 C 51 % 20.04 C
518 30-07-2018 19:05:00 31.2 C 52 % 20.17 C
519 30-07-2018 19:10:00 31.1 C 51 % 19.76 C
520 30-07-2018 19:15:00 31.1 C 53 % 20.39 C
521 30-07-2018 19:20:00 31.2 C 52 % 20.17 C
522 30-07-2018 19:25:00 31.3 C 46 % 18.29 C
523 30-07-2018 19:30:00 31.6 C 46 % 18.56 C
524 30-07-2018 19:35:00 31.8 C 48 % 19.43 C
525 30-07-2018 19:40:00 32 C 44 % 18.21 C
Sensor: Nr:Datum:Temp:Feuchte:Taupunkt:
Aussen-T/F 526 30-07-2018 19:45:00 32.2 C 40 % 16.88 C
527 30-07-2018 19:50:00 32.2 C 41 % 17.27 C
528 30-07-2018 19:55:00 32.2 C 46 % 19.11 C
529 30-07-2018 20:00:00 32.1 C 43 % 17.94 C
530 30-07-2018 20:05:00 31.9 C 47 % 19.18 C
531 30-07-2018 20:10:00 31.6 C 46 % 18.56 C
532 30-07-2018 20:15:00 31.4 C 47 % 18.73 C
533 30-07-2018 20:20:00 31.3 C 46 % 18.29 C
534 30-07-2018 20:25:00 31.1 C 47 % 18.45 C
535 30-07-2018 20:30:00 30.8 C 48 % 18.52 C
536 30-07-2018 20:35:00 30.5 C 48 % 18.24 C
537 30-07-2018 20:40:00 30.2 C 48 % 17.97 C
538 30-07-2018 20:45:00 29.8 C 50 % 18.25 C
539 30-07-2018 20:50:00 29.4 C 50 % 17.89 C
540 30-07-2018 20:55:00 29.1 C 53 % 18.54 C
541 30-07-2018 21:00:00 28.6 C 53 % 18.08 C
542 30-07-2018 21:05:00 28.2 C 55 % 18.3 C
543 30-07-2018 21:10:00 27.7 C 56 % 18.12 C
544 30-07-2018 21:15:00 27.2 C 58 % 18.22 C
545 30-07-2018 21:20:00 26.8 C 60 % 18.38 C
546 30-07-2018 21:25:00 26.4 C 60 % 18.01 C
547 30-07-2018 21:30:00 26.1 C 61 % 17.99 C
548 30-07-2018 21:35:00 25.9 C 61 % 17.8 C
549 30-07-2018 21:40:00 25.7 C 62 % 17.87 C
550 30-07-2018 21:45:00 25.5 C 63 % 17.94 C
Sensor: Nr:Datum:Temp:Feuchte:Taupunkt:
Aussen-T/F 551 30-07-2018 21:50:00 25.3 C 64 % 18 C
552 30-07-2018 21:55:00 25.2 C 64 % 17.9 C
553 30-07-2018 22:00:00 25 C 65 % 17.96 C
554 30-07-2018 22:05:00 24.8 C 66 % 18.01 C
555 30-07-2018 22:10:00 24.6 C 66 % 17.83 C
556 30-07-2018 22:15:00 24.3 C 66 % 17.54 C
557 30-07-2018 22:20:00 24.1 C 67 % 17.59 C
558 30-07-2018 22:25:00 23.9 C 68 % 17.63 C
559 30-07-2018 22:30:00 23.8 C 67 % 17.3 C
560 30-07-2018 22:35:00 23.7 C 67 % 17.21 C
561 30-07-2018 22:40:00 23.7 C 69 % 17.67 C
562 30-07-2018 22:45:00 23.5 C 69 % 17.48 C
563 30-07-2018 22:50:00 23.4 C 68 % 17.16 C
564 30-07-2018 22:55:00 23.3 C 68 % 17.06 C
565 30-07-2018 23:00:00 23.2 C 70 % 17.42 C
566 30-07-2018 23:05:00 23.1 C 70 % 17.33 C
567 30-07-2018 23:10:00 22.9 C 69 % 16.91 C
568 30-07-2018 23:15:00 22.8 C 72 % 17.49 C
569 30-07-2018 23:20:00 22.6 C 71 % 17.07 C
570 30-07-2018 23:25:00 22.4 C 72 % 17.1 C
571 30-07-2018 23:30:00 22.3 C 73 % 17.23 C
572 30-07-2018 23:35:00 22.2 C 72 % 16.91 C
573 30-07-2018 23:40:00 22.2 C 71 % 16.69 C
574 30-07-2018 23:45:00 22.2 C 71 % 16.69 C
575 30-07-2018 23:50:00 22.3 C 71 % 16.79 C
Sensor: Nr:Datum:Temp:Feuchte:Taupunkt:
Aussen-T/F 576 30-07-2018 23:55:00 22.4 C 72 % 17.1 C
577 31-07-2018 00:00:00 22.3 C 71 % 16.79 C
578 31-07-2018 00:05:00 22.3 C 71 % 16.79 C
579 31-07-2018 00:10:00 22.4 C 72 % 17.1 C
580 31-07-2018 00:15:00 22.3 C 71 % 16.79 C
581 31-07-2018 00:20:00 22.2 C 72 % 16.91 C
582 31-07-2018 00:25:00 21.9 C 73 % 16.84 C
583 31-07-2018 00:30:00 21.7 C 73 % 16.65 C
584 31-07-2018 00:35:00 21.6 C 73 % 16.55 C
585 31-07-2018 00:40:00 21.5 C 75 % 16.88 C
586 31-07-2018 00:45:00 21.4 C 75 % 16.79 C
587 31-07-2018 00:50:00 21.3 C 76 % 16.9 C
588 31-07-2018 00:55:00 21.2 C 75 % 16.59 C
589 31-07-2018 01:00:00 21.1 C 75 % 16.5 C
590 31-07-2018 01:05:00 21 C 76 % 16.61 C
591 31-07-2018 01:10:00 20.9 C 76 % 16.51 C
592 31-07-2018 01:15:00 20.8 C 76 % 16.41 C
593 31-07-2018 01:20:00 20.7 C 77 % 16.52 C
594 31-07-2018 01:25:00 20.6 C 76 % 16.22 C
595 31-07-2018 01:30:00 20.5 C 77 % 16.33 C
596 31-07-2018 01:35:00 20.4 C 77 % 16.23 C
597 31-07-2018 01:40:00 20.5 C 77 % 16.33 C
598 31-07-2018 01:45:00 20.5 C 77 % 16.33 C
599 31-07-2018 01:50:00 20.6 C 77 % 16.43 C
600 31-07-2018 01:55:00 20.5 C 77 % 16.33 C
Sensor: Nr:Datum:Temp:Feuchte:Taupunkt:
Aussen-T/F 601 31-07-2018 02:00:00 20.4 C 77 % 16.23 C
602 31-07-2018 02:05:00 20.4 C 78 % 16.44 C
603 31-07-2018 02:10:00 20.3 C 78 % 16.34 C
604 31-07-2018 02:15:00 20.2 C 79 % 16.44 C
605 31-07-2018 02:20:00 20.1 C 79 % 16.34 C
606 31-07-2018 02:25:00 20 C 79 % 16.25 C
607 31-07-2018 02:30:00 19.9 C 79 % 16.15 C
608 31-07-2018 02:35:00 19.8 C 80 % 16.25 C
609 31-07-2018 02:40:00 19.7 C 80 % 16.15 C
610 31-07-2018 02:45:00 19.6 C 80 % 16.06 C
611 31-07-2018 02:50:00 19.6 C 81 % 16.25 C
612 31-07-2018 02:55:00 19.7 C 81 % 16.35 C
613 31-07-2018 03:00:00 19.8 C 81 % 16.45 C
614 31-07-2018 03:05:00 19.7 C 80 % 16.15 C
615 31-07-2018 03:10:00 19.6 C 80 % 16.06 C
616 31-07-2018 03:15:00 19.5 C 81 % 16.15 C
617 31-07-2018 03:20:00 19.4 C 81 % 16.06 C
618 31-07-2018 03:25:00 19.3 C 81 % 15.96 C
619 31-07-2018 03:30:00 19.1 C 81 % 15.76 C
620 31-07-2018 03:35:00 19.1 C 82 % 15.96 C
621 31-07-2018 03:40:00 18.9 C 82 % 15.76 C
622 31-07-2018 03:45:00 18.9 C 82 % 15.76 C
623 31-07-2018 03:50:00 18.8 C 83 % 15.85 C
624 31-07-2018 03:55:00 18.8 C 83 % 15.85 C
625 31-07-2018 04:00:00 18.8 C 83 % 15.85 C
Sensor: Nr:Datum:Temp:Feuchte:Taupunkt:
Aussen-T/F 626 31-07-2018 04:05:00 18.8 C 83 % 15.85 C
627 31-07-2018 04:10:00 18.7 C 83 % 15.75 C
628 31-07-2018 04:15:00 18.6 C 83 % 15.66 C
629 31-07-2018 04:20:00 18.5 C 84 % 15.75 C
630 31-07-2018 04:25:00 18.4 C 84 % 15.65 C
631 31-07-2018 04:30:00 18.3 C 84 % 15.55 C
632 31-07-2018 04:35:00 18.3 C 84 % 15.55 C
633 31-07-2018 04:40:00 18.2 C 85 % 15.64 C
634 31-07-2018 04:45:00 18.1 C 85 % 15.54 C
635 31-07-2018 04:50:00 18.1 C 85 % 15.54 C
636 31-07-2018 04:55:00 17.9 C 85 % 15.34 C
637 31-07-2018 05:00:00 17.9 C 86 % 15.53 C
638 31-07-2018 05:05:00 17.9 C 85 % 15.34 C
639 31-07-2018 05:10:00 17.8 C 86 % 15.43 C
640 31-07-2018 05:15:00 17.8 C 86 % 15.43 C
641 31-07-2018 05:20:00 17.8 C 86 % 15.43 C
642 31-07-2018 05:25:00 17.7 C 86 % 15.33 C
643 31-07-2018 05:30:00 17.7 C 86 % 15.33 C
644 31-07-2018 05:35:00 17.7 C 86 % 15.33 C
645 31-07-2018 05:40:00 17.7 C 86 % 15.33 C
646 31-07-2018 05:45:00 17.7 C 86 % 15.33 C
647 31-07-2018 05:50:00 17.7 C 86 % 15.33 C
648 31-07-2018 05:55:00 17.6 C 86 % 15.23 C
649 31-07-2018 06:00:00 17.6 C 87 % 15.41 C
650 31-07-2018 06:05:00 17.5 C 87 % 15.31 C
Sensor: Nr:Datum:Temp:Feuchte:Taupunkt:
Aussen-T/F 651 31-07-2018 06:10:00 17.5 C 87 % 15.31 C
652 31-07-2018 06:15:00 17.5 C 87 % 15.31 C
653 31-07-2018 06:20:00 17.5 C 87 % 15.31 C
654 31-07-2018 06:25:00 17.4 C 87 % 15.21 C
655 31-07-2018 06:30:00 17.4 C 87 % 15.21 C
656 31-07-2018 06:35:00 17.4 C 87 % 15.21 C
657 31-07-2018 06:40:00 17.4 C 88 % 15.39 C
658 31-07-2018 06:45:00 17.4 C 88 % 15.39 C
659 31-07-2018 06:50:00 17.5 C 88 % 15.49 C
660 31-07-2018 06:55:00 17.6 C 88 % 15.59 C
661 31-07-2018 07:00:00 17.6 C 89 % 15.77 C
662 31-07-2018 07:05:00 17.7 C 89 % 15.86 C
663 31-07-2018 07:10:00 17.7 C 89 % 15.86 C
664 31-07-2018 07:15:00 17.8 C 89 % 15.96 C
665 31-07-2018 07:20:00 17.9 C 89 % 16.06 C
666 31-07-2018 07:25:00 17.9 C 89 % 16.06 C
667 31-07-2018 07:30:00 18 C 89 % 16.16 C
668 31-07-2018 07:35:00 18.1 C 89 % 16.26 C
669 31-07-2018 07:40:00 18.1 C 89 % 16.26 C
670 31-07-2018 07:45:00 18.1 C 88 % 16.08 C
671 31-07-2018 07:50:00 18.2 C 88 % 16.18 C
672 31-07-2018 07:55:00 18.2 C 88 % 16.18 C
673 31-07-2018 08:00:00 18.3 C 88 % 16.28 C
674 31-07-2018 08:05:00 18.3 C 88 % 16.28 C
675 31-07-2018 08:10:00 18.4 C 87 % 16.2 C
Sensor: Nr:Datum:Temp:Feuchte:Taupunkt:
Aussen-T/F 676 31-07-2018 08:15:00 18.4 C 87 % 16.2 C
677 31-07-2018 08:20:00 18.6 C 87 % 16.39 C
678 31-07-2018 08:25:00 18.6 C 87 % 16.39 C
679 31-07-2018 08:30:00 18.7 C 87 % 16.49 C
680 31-07-2018 08:35:00 18.8 C 87 % 16.59 C
681 31-07-2018 08:40:00 19.1 C 87 % 16.89 C
682 31-07-2018 08:45:00 19.3 C 87 % 17.08 C
683 31-07-2018 08:50:00 19.5 C 87 % 17.28 C
684 31-07-2018 08:55:00 19.8 C 86 % 17.39 C
685 31-07-2018 09:00:00 20.1 C 86 % 17.68 C
686 31-07-2018 09:05:00 20.3 C 84 % 17.51 C
687 31-07-2018 09:10:00 20.8 C 81 % 17.42 C
688 31-07-2018 09:15:00 21.2 C 82 % 18 C
689 31-07-2018 09:20:00 21.6 C 80 % 18 C
690 31-07-2018 09:25:00 22 C 77 % 17.78 C
691 31-07-2018 09:30:00 22.3 C 74 % 17.44 C
692 31-07-2018 09:35:00 22.6 C 76 % 18.15 C
693 31-07-2018 09:40:00 22.9 C 76 % 18.44 C
694 31-07-2018 09:45:00 23.1 C 76 % 18.64 C
695 31-07-2018 09:50:00 23 C 76 % 18.54 C
696 31-07-2018 09:55:00 22.8 C 75 % 18.14 C
697 31-07-2018 10:00:00 22.7 C 75 % 18.04 C
698 31-07-2018 10:05:00 22.6 C 74 % 17.73 C
699 31-07-2018 10:10:00 22.7 C 77 % 18.46 C
700 31-07-2018 10:15:00 22.7 C 74 % 17.83 C
Sensor: Nr:Datum:Temp:Feuchte:Taupunkt:
Aussen-T/F 701 31-07-2018 10:20:00 22.8 C 73 % 17.71 C
702 31-07-2018 10:25:00 23 C 72 % 17.68 C
703 31-07-2018 10:30:00 23.3 C 72 % 17.97 C
704 31-07-2018 10:35:00 23.6 C 69 % 17.58 C
705 31-07-2018 10:40:00 24.1 C 70 % 18.29 C
706 31-07-2018 10:45:00 24.4 C 67 % 17.87 C
707 31-07-2018 10:50:00 24.8 C 65 % 17.77 C
708 31-07-2018 10:55:00 25.1 C 63 % 17.56 C
709 31-07-2018 11:00:00 25.3 C 61 % 17.24 C
710 31-07-2018 11:05:00 25.6 C 65 % 18.53 C
711 31-07-2018 11:10:00 25.6 C 62 % 17.78 C
712 31-07-2018 11:15:00 25.9 C 62 % 18.06 C
713 31-07-2018 11:20:00 26.2 C 58 % 17.28 C
714 31-07-2018 11:25:00 26.6 C 57 % 17.38 C
715 31-07-2018 11:30:00 26.9 C 58 % 17.94 C
716 31-07-2018 11:35:00 27.2 C 56 % 17.66 C
717 31-07-2018 11:40:00 27.4 C 55 % 17.56 C
718 31-07-2018 11:45:00 27.6 C 56 % 18.03 C
719 31-07-2018 11:50:00 27.6 C 54 % 17.45 C
720 31-07-2018 11:55:00 27.9 C 53 % 17.43 C
721 31-07-2018 12:00:00 28.2 C 50 % 16.79 C
722 31-07-2018 12:05:00 28.6 C 48 % 16.51 C
723 31-07-2018 12:10:00 29.1 C 49 % 17.29 C
724 31-07-2018 12:15:00 29.4 C 47 % 16.91 C
725 31-07-2018 12:20:00 29.7 C 45 % 16.5 C
Sensor: Nr:Datum:Temp:Feuchte:Taupunkt:
Aussen-T/F 726 31-07-2018 12:25:00 29.8 C 47 % 17.27 C
727 31-07-2018 12:30:00 30 C 44 % 16.41 C
728 31-07-2018 12:35:00 30.2 C 46 % 17.3 C
729 31-07-2018 12:40:00 30.3 C 45 % 17.04 C
730 31-07-2018 12:45:00 30.5 C 45 % 17.22 C
731 31-07-2018 12:50:00 30.6 C 45 % 17.31 C
732 31-07-2018 12:55:00 30.7 C 44 % 17.04 C
733 31-07-2018 13:00:00 30.7 C 44 % 17.04 C
734 31-07-2018 13:05:00 30.8 C 45 % 17.49 C
735 31-07-2018 13:10:00 30.9 C 43 % 16.86 C
736 31-07-2018 13:15:00 31 C 43 % 16.95 C
737 31-07-2018 13:20:00 31.1 C 46 % 18.11 C
738 31-07-2018 13:25:00 31.2 C 44 % 17.49 C
739 31-07-2018 13:30:00 31.3 C 44 % 17.58 C
740 31-07-2018 13:35:00 31.4 C 44 % 17.67 C
741 31-07-2018 13:40:00 31.6 C 43 % 17.49 C
742 31-07-2018 13:45:00 31.6 C 43 % 17.49 C
743 31-07-2018 13:50:00 31.4 C 43 % 17.31 C
744 31-07-2018 13:55:00 31.4 C 45 % 18.03 C
745 31-07-2018 14:00:00 31.3 C 44 % 17.58 C
746 31-07-2018 14:05:00 31.2 C 44 % 17.49 C
747 31-07-2018 14:10:00 31.3 C 45 % 17.94 C
748 31-07-2018 14:15:00 31.3 C 43 % 17.22 C
749 31-07-2018 14:20:00 31.4 C 43 % 17.31 C
750 31-07-2018 14:25:00 31.6 C 42 % 17.12 C
Sensor: Nr:Datum:Temp:Feuchte:Taupunkt:
Aussen-T/F 751 31-07-2018 14:30:00 31.7 C 43 % 17.58 C
752 31-07-2018 14:35:00 31.8 C 41 % 16.92 C
753 31-07-2018 14:40:00 32 C 41 % 17.09 C
754 31-07-2018 14:45:00 32.3 C 41 % 17.36 C
755 31-07-2018 14:50:00 32.6 C 39 % 16.84 C
756 31-07-2018 14:55:00 32.8 C 38 % 16.61 C
757 31-07-2018 15:00:00 32.6 C 39 % 16.84 C
758 31-07-2018 15:05:00 32.2 C 40 % 16.88 C
759 31-07-2018 15:10:00 32.1 C 41 % 17.18 C
760 31-07-2018 15:15:00 32.2 C 40 % 16.88 C
761 31-07-2018 15:20:00 32.3 C 39 % 16.57 C
762 31-07-2018 15:25:00 32.4 C 39 % 16.66 C
763 31-07-2018 15:30:00 32.3 C 41 % 17.36 C
764 31-07-2018 15:35:00 32.8 C 40 % 17.42 C
765 31-07-2018 15:40:00 33.6 C 37 % 16.89 C
766 31-07-2018 15:45:00 34.3 C 36 % 17.08 C
767 31-07-2018 15:50:00 34.9 C 34 % 16.7 C
768 31-07-2018 15:55:00 35.3 C 33 % 16.58 C
769 31-07-2018 16:00:00 35.1 C 31 % 15.43 C
770 31-07-2018 16:05:00 34.6 C 33 % 15.97 C
771 31-07-2018 16:10:00 34.6 C 34 % 16.44 C
772 31-07-2018 16:15:00 35 C 32 % 15.83 C
773 31-07-2018 16:20:00 35.3 C 30 % 15.09 C
774 31-07-2018 16:25:00 35.4 C 31 % 15.68 C
775 31-07-2018 16:30:00 35.5 C 31 % 15.77 C
Sensor: Nr:Datum:Temp:Feuchte:Taupunkt:
Aussen-T/F 776 31-07-2018 16:35:00 35.6 C 31 % 15.86 C
777 31-07-2018 16:40:00 34.9 C 32 % 15.75 C
778 31-07-2018 16:45:00 34.6 C 33 % 15.97 C
779 31-07-2018 16:50:00 34.6 C 35 % 16.89 C
780 31-07-2018 16:55:00 34.9 C 33 % 16.23 C
781 31-07-2018 17:00:00 35.5 C 31 % 15.77 C
782 31-07-2018 17:05:00 35.8 C 31 % 16.03 C
783 31-07-2018 17:10:00 36.1 C 31 % 16.29 C
784 31-07-2018 17:15:00 36.2 C 29 % 15.33 C
785 31-07-2018 17:20:00 36.1 C 30 % 15.77 C
786 31-07-2018 17:25:00 35.9 C 31 % 16.11 C
787 31-07-2018 17:30:00 35.9 C 31 % 16.11 C
788 31-07-2018 17:35:00 35.7 C 31 % 15.94 C
789 31-07-2018 17:40:00 35.2 C 34 % 16.96 C
790 31-07-2018 17:45:00 35.1 C 31 % 15.43 C
791 31-07-2018 17:50:00 35.1 C 32 % 15.92 C
792 31-07-2018 17:55:00 35.3 C 32 % 16.09 C
793 31-07-2018 18:00:00 35.4 C 32 % 16.18 C
794 31-07-2018 18:05:00 35.4 C 31 % 15.68 C
795 31-07-2018 18:10:00 35.6 C 31 % 15.86 C
796 31-07-2018 18:15:00 35.7 C 31 % 15.94 C
797 31-07-2018 18:20:00 35.7 C 31 % 15.94 C
798 31-07-2018 18:25:00 35.5 C 31 % 15.77 C
799 31-07-2018 18:30:00 35.3 C 31 % 15.6 C
800 31-07-2018 18:35:00 34.9 C 35 % 17.16 C
Sensor: Nr:Datum:Temp:Feuchte:Taupunkt:
Aussen-T/F 801 31-07-2018 18:40:00 34.3 C 36 % 17.08 C
802 31-07-2018 18:45:00 33.8 C 38 % 17.49 C
803 31-07-2018 18:50:00 33.2 C 40 % 17.77 C
804 31-07-2018 18:55:00 32.7 C 41 % 17.72 C
805 31-07-2018 19:00:00 32.3 C 42 % 17.74 C
806 31-07-2018 19:05:00 32.2 C 43 % 18.03 C
807 31-07-2018 19:10:00 32.3 C 42 % 17.74 C
808 31-07-2018 19:15:00 32.3 C 42 % 17.74 C
809 31-07-2018 19:20:00 32.1 C 42 % 17.57 C
810 31-07-2018 19:25:00 31.8 C 44 % 18.03 C
811 31-07-2018 19:30:00 31.4 C 43 % 17.31 C
812 31-07-2018 19:35:00 31.2 C 44 % 17.49 C
813 31-07-2018 19:40:00 30.9 C 44 % 17.22 C
814 31-07-2018 19:45:00 30.7 C 45 % 17.4 C
815 31-07-2018 19:50:00 30.6 C 45 % 17.31 C
816 31-07-2018 19:55:00 30.4 C 46 % 17.48 C
817 31-07-2018 20:00:00 30.3 C 46 % 17.39 C
818 31-07-2018 20:05:00 30.2 C 47 % 17.64 C
819 31-07-2018 20:10:00 30.1 C 47 % 17.54 C
820 31-07-2018 20:15:00 30 C 47 % 17.45 C
821 31-07-2018 20:20:00 29.8 C 47 % 17.27 C
822 31-07-2018 20:25:00 29.7 C 47 % 17.18 C
823 31-07-2018 20:30:00 29.5 C 48 % 17.33 C
824 31-07-2018 20:35:00 29.3 C 48 % 17.15 C
825 31-07-2018 20:40:00 29.1 C 50 % 17.61 C
Sensor: Nr:Datum:Temp:Feuchte:Taupunkt:
Aussen-T/F 826 31-07-2018 20:45:00 28.8 C 51 % 17.65 C
827 31-07-2018 20:50:00 28.5 C 49 % 16.75 C
828 31-07-2018 20:55:00 28.3 C 50 % 16.88 C
829 31-07-2018 21:00:00 28.3 C 53 % 17.8 C
830 31-07-2018 21:05:00 28 C 54 % 17.82 C
831 31-07-2018 21:10:00 27.6 C 53 % 17.16 C
832 31-07-2018 21:15:00 27.3 C 52 % 16.58 C
833 31-07-2018 21:20:00 27.3 C 53 % 16.88 C
834 31-07-2018 21:25:00 27.1 C 52 % 16.4 C
835 31-07-2018 21:30:00 26.9 C 54 % 16.81 C
836 31-07-2018 21:35:00 26.7 C 54 % 16.62 C
837 31-07-2018 21:40:00 26.4 C 55 % 16.63 C
838 31-07-2018 21:45:00 26.2 C 57 % 17.01 C
839 31-07-2018 21:50:00 25.9 C 56 % 16.45 C
840 31-07-2018 21:55:00 25.7 C 57 % 16.54 C
841 31-07-2018 22:00:00 25.4 C 58 % 16.54 C
842 31-07-2018 22:05:00 25.2 C 58 % 16.35 C
843 31-07-2018 22:10:00 25 C 59 % 16.43 C
844 31-07-2018 22:15:00 24.8 C 58 % 15.98 C
845 31-07-2018 22:20:00 24.7 C 59 % 16.15 C
846 31-07-2018 22:25:00 24.5 C 59 % 15.96 C
847 31-07-2018 22:30:00 24.3 C 60 % 16.04 C
848 31-07-2018 22:35:00 24.2 C 60 % 15.95 C
849 31-07-2018 22:40:00 24.1 C 61 % 16.11 C
850 31-07-2018 22:45:00 24 C 61 % 16.02 C
Sensor: Nr:Datum:Temp:Feuchte:Taupunkt:
Aussen-T/F 851 31-07-2018 22:50:00 23.9 C 61 % 15.92 C
852 31-07-2018 22:55:00 23.8 C 63 % 16.33 C
853 31-07-2018 23:00:00 23.8 C 62 % 16.08 C
854 31-07-2018 23:05:00 23.8 C 63 % 16.33 C
855 31-07-2018 23:10:00 23.7 C 62 % 15.99 C
856 31-07-2018 23:15:00 23.7 C 62 % 15.99 C
857 31-07-2018 23:20:00 23.6 C 63 % 16.14 C
858 31-07-2018 23:25:00 23.5 C 63 % 16.05 C
859 31-07-2018 23:30:00 23.4 C 63 % 15.96 C
860 31-07-2018 23:35:00 23.3 C 64 % 16.11 C
861 31-07-2018 23:40:00 23.2 C 64 % 16.01 C
862 31-07-2018 23:45:00 23.1 C 63 % 15.67 C
863 31-07-2018 23:50:00 23 C 64 % 15.82 C
864 31-07-2018 23:55:00 22.9 C 65 % 15.97 C
865 01-08-2018 00:00:00 22.8 C 65 % 15.88 C
866 01-08-2018 00:05:00 22.7 C 64 % 15.54 C
867 01-08-2018 00:10:00 22.6 C 65 % 15.69 C
868 01-08-2018 00:15:00 22.5 C 66 % 15.83 C
869 01-08-2018 00:20:00 22.4 C 66 % 15.74 C
870 01-08-2018 00:25:00 22.3 C 66 % 15.64 C
871 01-08-2018 00:30:00 22.3 C 66 % 15.64 C
872 01-08-2018 00:35:00 22.2 C 66 % 15.55 C
873 01-08-2018 00:40:00 22.2 C 67 % 15.78 C
874 01-08-2018 00:45:00 22.2 C 67 % 15.78 C
875 01-08-2018 00:50:00 22.1 C 67 % 15.69 C
Sensor: Nr:Datum:Temp:Feuchte:Taupunkt:
Aussen-T/F 876 01-08-2018 00:55:00 22 C 66 % 15.36 C
877 01-08-2018 01:00:00 21.9 C 66 % 15.26 C
878 01-08-2018 01:05:00 21.9 C 68 % 15.73 C
879 01-08-2018 01:10:00 21.8 C 67 % 15.4 C
880 01-08-2018 01:15:00 21.7 C 68 % 15.54 C
881 01-08-2018 01:20:00 21.6 C 68 % 15.44 C
882 01-08-2018 01:25:00 21.5 C 68 % 15.35 C
883 01-08-2018 01:30:00 21.4 C 69 % 15.48 C
884 01-08-2018 01:35:00 21.3 C 69 % 15.38 C
885 01-08-2018 01:40:00 21.2 C 69 % 15.29 C
886 01-08-2018 01:45:00 21.1 C 70 % 15.42 C
887 01-08-2018 01:50:00 20.9 C 70 % 15.23 C
888 01-08-2018 01:55:00 20.8 C 71 % 15.35 C
889 01-08-2018 02:00:00 20.7 C 71 % 15.25 C
890 01-08-2018 02:05:00 20.7 C 72 % 15.47 C
891 01-08-2018 02:10:00 20.6 C 72 % 15.38 C
892 01-08-2018 02:15:00 20.5 C 73 % 15.5 C
893 01-08-2018 02:20:00 20.4 C 73 % 15.4 C
894 01-08-2018 02:25:00 20.4 C 73 % 15.4 C
895 01-08-2018 02:30:00 20.3 C 73 % 15.3 C
896 01-08-2018 02:35:00 20.3 C 73 % 15.3 C
897 01-08-2018 02:40:00 20.3 C 73 % 15.3 C
898 01-08-2018 02:45:00 20.3 C 74 % 15.51 C
899 01-08-2018 02:50:00 20.3 C 74 % 15.51 C
900 01-08-2018 02:55:00 20.2 C 75 % 15.63 C
Sensor: Nr:Datum:Temp:Feuchte:Taupunkt:
Aussen-T/F 901 01-08-2018 03:00:00 20.2 C 75 % 15.63 C
902 01-08-2018 03:05:00 20.2 C 75 % 15.63 C
903 01-08-2018 03:10:00 20.3 C 75 % 15.72 C
904 01-08-2018 03:15:00 20.4 C 74 % 15.61 C
905 01-08-2018 03:20:00 20.5 C 75 % 15.92 C
906 01-08-2018 03:25:00 20.5 C 74 % 15.71 C
907 01-08-2018 03:30:00 20.4 C 74 % 15.61 C
908 01-08-2018 03:35:00 20.4 C 74 % 15.61 C
909 01-08-2018 03:40:00 20.3 C 74 % 15.51 C
910 01-08-2018 03:45:00 20.4 C 75 % 15.82 C
911 01-08-2018 03:50:00 20.5 C 75 % 15.92 C
912 01-08-2018 03:55:00 20.6 C 75 % 16.01 C
913 01-08-2018 04:00:00 20.6 C 74 % 15.8 C
914 01-08-2018 04:05:00 20.6 C 74 % 15.8 C
915 01-08-2018 04:10:00 20.7 C 74 % 15.9 C
916 01-08-2018 04:15:00 20.7 C 75 % 16.11 C
917 01-08-2018 04:20:00 20.8 C 75 % 16.21 C
918 01-08-2018 04:25:00 20.8 C 74 % 16 C
919 01-08-2018 04:30:00 20.7 C 75 % 16.11 C
920 01-08-2018 04:35:00 20.7 C 75 % 16.11 C
921 01-08-2018 04:40:00 20.7 C 75 % 16.11 C
922 01-08-2018 04:45:00 20.6 C 76 % 16.22 C
923 01-08-2018 04:50:00 20.6 C 75 % 16.01 C
924 01-08-2018 04:55:00 20.6 C 75 % 16.01 C
925 01-08-2018 05:00:00 20.6 C 75 % 16.01 C
Sensor: Nr:Datum:Temp:Feuchte:Taupunkt:
Aussen-T/F 926 01-08-2018 05:05:00 20.7 C 77 % 16.52 C
927 01-08-2018 05:10:00 20.7 C 84 % 17.9 C
928 01-08-2018 05:15:00 20.4 C 85 % 17.79 C
929 01-08-2018 05:20:00 20.1 C 86 % 17.68 C
930 01-08-2018 05:25:00 19.8 C 88 % 17.75 C
931 01-08-2018 05:30:00 19.6 C 88 % 17.56 C
932 01-08-2018 05:35:00 19.3 C 89 % 17.44 C
933 01-08-2018 05:40:00 19.1 C 89 % 17.24 C
934 01-08-2018 05:45:00 18.9 C 90 % 17.22 C
935 01-08-2018 05:50:00 18.8 C 90 % 17.12 C
936 01-08-2018 05:55:00 18.6 C 90 % 16.93 C
937 01-08-2018 06:00:00 18.6 C 91 % 17.1 C
938 01-08-2018 06:05:00 18.4 C 91 % 16.9 C
939 01-08-2018 06:10:00 18.3 C 91 % 16.81 C
940 01-08-2018 06:15:00 18.2 C 91 % 16.71 C
941 01-08-2018 06:20:00 18.1 C 92 % 16.78 C
942 01-08-2018 06:25:00 17.9 C 92 % 16.58 C
943 01-08-2018 06:30:00 17.9 C 92 % 16.58 C
944 01-08-2018 06:35:00 17.8 C 92 % 16.48 C
945 01-08-2018 06:40:00 17.8 C 92 % 16.48 C
946 01-08-2018 06:45:00 17.7 C 93 % 16.55 C
947 01-08-2018 06:50:00 17.7 C 93 % 16.55 C
948 01-08-2018 06:55:00 17.6 C 93 % 16.45 C
949 01-08-2018 07:00:00 17.6 C 93 % 16.45 C
950 01-08-2018 07:05:00 17.6 C 93 % 16.45 C
Sensor: Nr:Datum:Temp:Feuchte:Taupunkt:
Aussen-T/F 951 01-08-2018 07:10:00 17.6 C 93 % 16.45 C
952 01-08-2018 07:15:00 17.5 C 93 % 16.36 C
953 01-08-2018 07:20:00 17.5 C 93 % 16.36 C
954 01-08-2018 07:25:00 17.5 C 94 % 16.52 C
955 01-08-2018 07:30:00 17.5 C 94 % 16.52 C
956 01-08-2018 07:35:00 17.6 C 94 % 16.62 C
957 01-08-2018 07:40:00 17.6 C 94 % 16.62 C
958 01-08-2018 07:45:00 17.6 C 94 % 16.62 C
959 01-08-2018 07:50:00 17.6 C 94 % 16.62 C
960 01-08-2018 07:55:00 17.6 C 94 % 16.62 C
961 01-08-2018 08:00:00 17.7 C 94 % 16.72 C
962 01-08-2018 08:05:00 17.7 C 94 % 16.72 C
963 01-08-2018 08:10:00 17.8 C 94 % 16.82 C
964 01-08-2018 08:15:00 17.9 C 95 % 17.09 C
965 01-08-2018 08:20:00 18.1 C 95 % 17.29 C
966 01-08-2018 08:25:00 18.2 C 95 % 17.39 C
967 01-08-2018 08:30:00 18.2 C 95 % 17.39 C
968 01-08-2018 08:35:00 18.4 C 95 % 17.58 C
969 01-08-2018 08:40:00 18.6 C 95 % 17.78 C
970 01-08-2018 08:45:00 18.8 C 95 % 17.98 C
971 01-08-2018 08:50:00 19.1 C 96 % 18.45 C
972 01-08-2018 08:55:00 19.3 C 95 % 18.48 C
973 01-08-2018 09:00:00 19.2 C 95 % 18.38 C
974 01-08-2018 09:05:00 19.3 C 95 % 18.48 C
975 01-08-2018 09:10:00 19.4 C 95 % 18.58 C
Sensor: Nr:Datum:Temp:Feuchte:Taupunkt:
Aussen-T/F 976 01-08-2018 09:15:00 19.6 C 95 % 18.78 C
977 01-08-2018 09:20:00 19.6 C 95 % 18.78 C
978 01-08-2018 09:25:00 19.6 C 95 % 18.78 C
979 01-08-2018 09:30:00 19.6 C 95 % 18.78 C
980 01-08-2018 09:35:00 19.6 C 94 % 18.61 C
981 01-08-2018 09:40:00 19.6 C 94 % 18.61 C
982 01-08-2018 09:45:00 19.6 C 94 % 18.61 C
983 01-08-2018 09:50:00 19.6 C 94 % 18.61 C
984 01-08-2018 09:55:00 19.7 C 95 % 18.88 C
985 01-08-2018 10:00:00 19.8 C 95 % 18.98 C
986 01-08-2018 10:05:00 20.1 C 95 % 19.27 C
987 01-08-2018 10:10:00 20.2 C 95 % 19.37 C
988 01-08-2018 10:15:00 20.4 C 95 % 19.57 C
989 01-08-2018 10:20:00 20.6 C 95 % 19.77 C
990 01-08-2018 10:25:00 20.8 C 95 % 19.97 C
991 01-08-2018 10:30:00 21 C 95 % 20.17 C
992 01-08-2018 10:35:00 21.3 C 95 % 20.47 C
993 01-08-2018 10:40:00 21.6 C 95 % 20.76 C
994 01-08-2018 10:45:00 21.7 C 93 % 20.52 C
995 01-08-2018 10:50:00 21.9 C 93 % 20.72 C
996 01-08-2018 10:55:00 22 C 92 % 20.64 C
997 01-08-2018 11:00:00 22.3 C 88 % 20.21 C
998 01-08-2018 11:05:00 22.7 C 89 % 20.79 C
999 01-08-2018 11:10:00 22.8 C 88 % 20.71 C
1000 01-08-2018 11:15:00 23.1 C 85 % 20.44 C
Sensor: Nr:Datum:Temp:Feuchte:Taupunkt:
Aussen-T/F 1001 01-08-2018 11:20:00 23.2 C 86 % 20.73 C
1002 01-08-2018 11:25:00 23.4 C 88 % 21.3 C
1003 01-08-2018 11:30:00 23.6 C 87 % 21.31 C
1004 01-08-2018 11:35:00 23.6 C 86 % 21.12 C
1005 01-08-2018 11:40:00 23.6 C 86 % 21.12 C
1006 01-08-2018 11:45:00 23.5 C 85 % 20.83 C
1007 01-08-2018 11:50:00 23.4 C 85 % 20.73 C
1008 01-08-2018 11:55:00 23.3 C 85 % 20.63 C
1009 01-08-2018 12:00:00 23.1 C 86 % 20.63 C
1010 01-08-2018 12:05:00 22.8 C 86 % 20.33 C
1011 01-08-2018 12:10:00 22.6 C 86 % 20.14 C
1012 01-08-2018 12:15:00 22.3 C 87 % 20.03 C
1013 01-08-2018 12:20:00 22.1 C 88 % 20.02 C
1014 01-08-2018 12:25:00 21.9 C 88 % 19.82 C
1015 01-08-2018 12:30:00 21.8 C 89 % 19.9 C
1016 01-08-2018 12:35:00 21.7 C 90 % 19.99 C
1017 01-08-2018 12:40:00 21.7 C 91 % 20.17 C
1018 01-08-2018 12:45:00 21.6 C 91 % 20.07 C
1019 01-08-2018 12:50:00 21.6 C 91 % 20.07 C
1020 01-08-2018 12:55:00 21.6 C 91 % 20.07 C
1021 01-08-2018 13:00:00 21.5 C 92 % 20.14 C
1022 01-08-2018 13:05:00 21.5 C 92 % 20.14 C
1023 01-08-2018 13:10:00 21.4 C 91 % 19.87 C
1024 01-08-2018 13:15:00 21.3 C 92 % 19.95 C
1025 01-08-2018 13:20:00 21.2 C 92 % 19.85 C
Sensor: Nr:Datum:Temp:Feuchte:Taupunkt:
Aussen-T/F 1026 01-08-2018 13:25:00 21.2 C 92 % 19.85 C
1027 01-08-2018 13:30:00 21.3 C 93 % 20.12 C
1028 01-08-2018 13:35:00 21.3 C 93 % 20.12 C
1029 01-08-2018 13:40:00 21.4 C 93 % 20.22 C
1030 01-08-2018 13:45:00 21.3 C 93 % 20.12 C
1031 01-08-2018 13:50:00 21.3 C 93 % 20.12 C
1032 01-08-2018 13:55:00 21.2 C 93 % 20.02 C
1033 01-08-2018 14:00:00 21.2 C 93 % 20.02 C
1034 01-08-2018 14:05:00 21.2 C 93 % 20.02 C
1035 01-08-2018 14:10:00 21.1 C 93 % 19.92 C
1036 01-08-2018 14:15:00 21 C 93 % 19.82 C
1037 01-08-2018 14:20:00 21.1 C 93 % 19.92 C
1038 01-08-2018 14:25:00 21.2 C 94 % 20.19 C
1039 01-08-2018 14:30:00 21.4 C 94 % 20.39 C
1040 01-08-2018 14:35:00 21.6 C 94 % 20.59 C
1041 01-08-2018 14:40:00 21.7 C 94 % 20.69 C
1042 01-08-2018 14:45:00 21.5 C 93 % 20.32 C
1043 01-08-2018 14:50:00 21.5 C 94 % 20.49 C
1044 01-08-2018 14:55:00 21.4 C 93 % 20.22 C
1045 01-08-2018 15:00:00 21.3 C 93 % 20.12 C
1046 01-08-2018 15:05:00 21.2 C 93 % 20.02 C
1047 01-08-2018 15:10:00 21 C 92 % 19.65 C
1048 01-08-2018 15:15:00 20.8 C 93 % 19.63 C
1049 01-08-2018 15:20:00 20.6 C 92 % 19.25 C
1050 01-08-2018 15:25:00 20.4 C 92 % 19.06 C
Sensor: Nr:Datum:Temp:Feuchte:Taupunkt:
Aussen-T/F 1051 01-08-2018 15:30:00 20.4 C 93 % 19.23 C
1052 01-08-2018 15:35:00 20.4 C 93 % 19.23 C
1053 01-08-2018 15:40:00 20.4 C 93 % 19.23 C
1054 01-08-2018 15:45:00 20.4 C 94 % 19.4 C
1055 01-08-2018 15:50:00 20.4 C 94 % 19.4 C
1056 01-08-2018 15:55:00 20.5 C 94 % 19.5 C
1057 01-08-2018 16:00:00 20.6 C 94 % 19.6 C
1058 01-08-2018 16:05:00 20.6 C 94 % 19.6 C
1059 01-08-2018 16:10:00 20.7 C 94 % 19.7 C
1060 01-08-2018 16:15:00 20.7 C 94 % 19.7 C
1061 01-08-2018 16:20:00 20.7 C 94 % 19.7 C
1062 01-08-2018 16:25:00 20.8 C 94 % 19.8 C
1063 01-08-2018 16:30:00 20.8 C 94 % 19.8 C
1064 01-08-2018 16:35:00 20.9 C 94 % 19.9 C
1065 01-08-2018 16:40:00 20.9 C 94 % 19.9 C
1066 01-08-2018 16:45:00 21 C 94 % 20 C
1067 01-08-2018 16:50:00 21.1 C 94 % 20.1 C
1068 01-08-2018 16:55:00 21.2 C 94 % 20.19 C
1069 01-08-2018 17:00:00 21.2 C 95 % 20.37 C
1070 01-08-2018 17:05:00 21.2 C 94 % 20.19 C
1071 01-08-2018 17:10:00 21.2 C 94 % 20.19 C
1072 01-08-2018 17:15:00 21.2 C 94 % 20.19 C
1073 01-08-2018 17:20:00 21.1 C 94 % 20.1 C
1074 01-08-2018 17:25:00 20.9 C 94 % 19.9 C
1075 01-08-2018 17:30:00 20.8 C 94 % 19.8 C
Sensor: Nr:Datum:Temp:Feuchte:Taupunkt:
Aussen-T/F 1076 01-08-2018 17:35:00 20.8 C 94 % 19.8 C
1077 01-08-2018 17:40:00 20.8 C 94 % 19.8 C
1078 01-08-2018 17:45:00 20.9 C 95 % 20.07 C
1079 01-08-2018 17:50:00 21.1 C 95 % 20.27 C
1080 01-08-2018 17:55:00 21.3 C 95 % 20.47 C
1081 01-08-2018 18:00:00 21.5 C 95 % 20.66 C
1082 01-08-2018 18:05:00 21.9 C 95 % 21.06 C
1083 01-08-2018 18:10:00 22.3 C 93 % 21.11 C
1084 01-08-2018 18:15:00 22.6 C 91 % 21.05 C
1085 01-08-2018 18:20:00 22.7 C 89 % 20.79 C
1086 01-08-2018 18:25:00 22.9 C 88 % 20.81 C
1087 01-08-2018 18:30:00 23.1 C 88 % 21 C
1088 01-08-2018 18:35:00 23.4 C 90 % 21.66 C
1089 01-08-2018 18:40:00 23.4 C 89 % 21.48 C
1090 01-08-2018 18:45:00 23.6 C 89 % 21.68 C
1091 01-08-2018 18:50:00 23.6 C 89 % 21.68 C
1092 01-08-2018 18:55:00 23.6 C 89 % 21.68 C
1093 01-08-2018 19:00:00 23.5 C 89 % 21.58 C
1094 01-08-2018 19:05:00 23.4 C 89 % 21.48 C
1095 01-08-2018 19:10:00 23.4 C 89 % 21.48 C
1096 01-08-2018 19:15:00 23.3 C 89 % 21.38 C
1097 01-08-2018 19:20:00 23.3 C 89 % 21.38 C
1098 01-08-2018 19:25:00 23.2 C 89 % 21.28 C
1099 01-08-2018 19:30:00 23.3 C 89 % 21.38 C
1100 01-08-2018 19:35:00 23.2 C 89 % 21.28 C
Sensor: Nr:Datum:Temp:Feuchte:Taupunkt:
Aussen-T/F 1101 01-08-2018 19:40:00 23.1 C 88 % 21 C
1102 01-08-2018 19:45:00 22.9 C 88 % 20.81 C
1103 01-08-2018 19:50:00 22.7 C 88 % 20.61 C
1104 01-08-2018 19:55:00 22.7 C 90 % 20.97 C
1105 01-08-2018 20:00:00 22.7 C 90 % 20.97 C
1106 01-08-2018 20:05:00 22.7 C 90 % 20.97 C
1107 01-08-2018 20:10:00 22.7 C 90 % 20.97 C
1108 01-08-2018 20:15:00 22.7 C 90 % 20.97 C
1109 01-08-2018 20:20:00 22.7 C 90 % 20.97 C
1110 01-08-2018 20:25:00 22.7 C 90 % 20.97 C
1111 01-08-2018 20:30:00 22.6 C 89 % 20.69 C
1112 01-08-2018 20:35:00 22.6 C 89 % 20.69 C
1113 01-08-2018 20:40:00 22.4 C 89 % 20.5 C
1114 01-08-2018 20:45:00 22.3 C 89 % 20.4 C
1115 01-08-2018 20:50:00 22.1 C 89 % 20.2 C
1116 01-08-2018 20:55:00 21.9 C 89 % 20 C
1117 01-08-2018 21:00:00 21.7 C 89 % 19.81 C
1118 01-08-2018 21:05:00 21.6 C 89 % 19.71 C
1119 01-08-2018 21:10:00 21.3 C 90 % 19.59 C
1120 01-08-2018 21:15:00 21.1 C 90 % 19.39 C
1121 01-08-2018 21:20:00 21 C 90 % 19.3 C
1122 01-08-2018 21:25:00 20.8 C 90 % 19.1 C
1123 01-08-2018 21:30:00 20.7 C 91 % 19.18 C
1124 01-08-2018 21:35:00 20.6 C 91 % 19.08 C
1125 01-08-2018 21:40:00 20.5 C 91 % 18.98 C
Sensor: Nr:Datum:Temp:Feuchte:Taupunkt:
Aussen-T/F 1126 01-08-2018 21:45:00 20.4 C 92 % 19.06 C
1127 01-08-2018 21:50:00 20.3 C 92 % 18.96 C
1128 01-08-2018 21:55:00 20.2 C 92 % 18.86 C
1129 01-08-2018 22:00:00 20.2 C 92 % 18.86 C
1130 01-08-2018 22:05:00 20.1 C 92 % 18.76 C
1131 01-08-2018 22:10:00 20.1 C 92 % 18.76 C
1132 01-08-2018 22:15:00 20 C 93 % 18.83 C
1133 01-08-2018 22:20:00 19.9 C 92 % 18.56 C
1134 01-08-2018 22:25:00 19.8 C 92 % 18.46 C
1135 01-08-2018 22:30:00 19.7 C 93 % 18.54 C
1136 01-08-2018 22:35:00 19.6 C 93 % 18.44 C
1137 01-08-2018 22:40:00 19.5 C 92 % 18.17 C
1138 01-08-2018 22:45:00 19.4 C 93 % 18.24 C
1139 01-08-2018 22:50:00 19.3 C 93 % 18.14 C
1140 01-08-2018 22:55:00 19.3 C 93 % 18.14 C
1141 01-08-2018 23:00:00 19.2 C 93 % 18.04 C
1142 01-08-2018 23:05:00 19.2 C 93 % 18.04 C
1143 01-08-2018 23:10:00 19.1 C 93 % 17.94 C
1144 01-08-2018 23:15:00 19.1 C 93 % 17.94 C
1145 01-08-2018 23:20:00 18.9 C 93 % 17.74 C
1146 01-08-2018 23:25:00 18.9 C 93 % 17.74 C
1147 01-08-2018 23:30:00 18.8 C 94 % 17.81 C
1148 01-08-2018 23:35:00 18.8 C 94 % 17.81 C
1149 01-08-2018 23:40:00 18.7 C 94 % 17.71 C
1150 01-08-2018 23:45:00 18.7 C 94 % 17.71 C
Sensor: Nr:Datum:Temp:Feuchte:Taupunkt:
Aussen-T/F 1151 01-08-2018 23:50:00 18.6 C 94 % 17.62 C
1152 01-08-2018 23:55:00 18.5 C 94 % 17.52 C
1153 02-08-2018 00:00:00 18.4 C 94 % 17.42 C
1154 02-08-2018 00:05:00 18.3 C 94 % 17.32 C
1155 02-08-2018 00:10:00 18.3 C 94 % 17.32 C
1156 02-08-2018 00:15:00 18.3 C 94 % 17.32 C
1157 02-08-2018 00:20:00 18.2 C 94 % 17.22 C
1158 02-08-2018 00:25:00 18.2 C 94 % 17.22 C
1159 02-08-2018 00:30:00 18.2 C 95 % 17.39 C
1160 02-08-2018 00:35:00 18.1 C 94 % 17.12 C
1161 02-08-2018 00:40:00 18.1 C 94 % 17.12 C
1162 02-08-2018 00:45:00 18 C 94 % 17.02 C
1163 02-08-2018 00:50:00 18 C 94 % 17.02 C
1164 02-08-2018 00:55:00 17.9 C 95 % 17.09 C
1165 02-08-2018 01:00:00 17.9 C 95 % 17.09 C
1166 02-08-2018 01:05:00 17.9 C 95 % 17.09 C
1167 02-08-2018 01:10:00 17.8 C 95 % 16.99 C
1168 02-08-2018 01:15:00 17.8 C 95 % 16.99 C
1169 02-08-2018 01:20:00 17.7 C 94 % 16.72 C
1170 02-08-2018 01:25:00 17.7 C 95 % 16.89 C
1171 02-08-2018 01:30:00 17.7 C 95 % 16.89 C
1172 02-08-2018 01:35:00 17.7 C 95 % 16.89 C
1173 02-08-2018 01:40:00 17.7 C 95 % 16.89 C
1174 02-08-2018 01:45:00 17.6 C 95 % 16.79 C
1175 02-08-2018 01:50:00 17.6 C 95 % 16.79 C
Sensor: Nr:Datum:Temp:Feuchte:Taupunkt:
Aussen-T/F 1176 02-08-2018 01:55:00 17.7 C 95 % 16.89 C
1177 02-08-2018 02:00:00 17.8 C 95 % 16.99 C
1178 02-08-2018 02:05:00 17.9 C 96 % 17.25 C
1179 02-08-2018 02:10:00 18.1 C 96 % 17.45 C
1180 02-08-2018 02:15:00 18.2 C 96 % 17.55 C
1181 02-08-2018 02:20:00 18.2 C 96 % 17.55 C
1182 02-08-2018 02:25:00 18.2 C 95 % 17.39 C
1183 02-08-2018 02:30:00 18.2 C 95 % 17.39 C
1184 02-08-2018 02:35:00 18.1 C 95 % 17.29 C
1185 02-08-2018 02:40:00 17.9 C 95 % 17.09 C
1186 02-08-2018 02:45:00 17.8 C 95 % 16.99 C
1187 02-08-2018 02:50:00 17.8 C 95 % 16.99 C
1188 02-08-2018 02:55:00 18 C 96 % 17.35 C
1189 02-08-2018 03:00:00 18 C 96 % 17.35 C
1190 02-08-2018 03:05:00 17.9 C 96 % 17.25 C
1191 02-08-2018 03:10:00 17.8 C 95 % 16.99 C
1192 02-08-2018 03:15:00 17.8 C 95 % 16.99 C
1193 02-08-2018 03:20:00 17.9 C 95 % 17.09 C
1194 02-08-2018 03:25:00 18 C 96 % 17.35 C
1195 02-08-2018 03:30:00 18.1 C 96 % 17.45 C
1196 02-08-2018 03:35:00 18.2 C 96 % 17.55 C
1197 02-08-2018 03:40:00 18.2 C 96 % 17.55 C
1198 02-08-2018 03:45:00 18.2 C 96 % 17.55 C
1199 02-08-2018 03:50:00 18.2 C 96 % 17.55 C
1200 02-08-2018 03:55:00 18.2 C 96 % 17.55 C
Sensor: Nr:Datum:Temp:Feuchte:Taupunkt:
Aussen-T/F 1201 02-08-2018 04:00:00 18.1 C 96 % 17.45 C
1202 02-08-2018 04:05:00 18.1 C 96 % 17.45 C
1203 02-08-2018 04:10:00 18.1 C 96 % 17.45 C
1204 02-08-2018 04:15:00 18.1 C 96 % 17.45 C
1205 02-08-2018 04:20:00 18.1 C 96 % 17.45 C
1206 02-08-2018 04:25:00 18 C 96 % 17.35 C
1207 02-08-2018 04:30:00 17.9 C 96 % 17.25 C
1208 02-08-2018 04:35:00 17.9 C 96 % 17.25 C
1209 02-08-2018 04:40:00 17.9 C 96 % 17.25 C
1210 02-08-2018 04:45:00 17.9 C 96 % 17.25 C
1211 02-08-2018 04:50:00 17.9 C 96 % 17.25 C
1212 02-08-2018 04:55:00 17.9 C 96 % 17.25 C
1213 02-08-2018 05:00:00 17.9 C 96 % 17.25 C
1214 02-08-2018 05:05:00 17.9 C 96 % 17.25 C
1215 02-08-2018 05:10:00 17.9 C 96 % 17.25 C
1216 02-08-2018 05:15:00 17.8 C 96 % 17.15 C
1217 02-08-2018 05:20:00 17.7 C 96 % 17.05 C
1218 02-08-2018 05:25:00 17.7 C 96 % 17.05 C
1219 02-08-2018 05:30:00 17.6 C 96 % 16.95 C
1220 02-08-2018 05:35:00 17.5 C 95 % 16.69 C
1221 02-08-2018 05:40:00 17.4 C 96 % 16.76 C
1222 02-08-2018 05:45:00 17.4 C 96 % 16.76 C
1223 02-08-2018 05:50:00 17.4 C 96 % 16.76 C
1224 02-08-2018 05:55:00 17.4 C 96 % 16.76 C
1225 02-08-2018 06:00:00 17.5 C 96 % 16.85 C
Sensor: Nr:Datum:Temp:Feuchte:Taupunkt:
Aussen-T/F 1226 02-08-2018 06:05:00 17.5 C 96 % 16.85 C
1227 02-08-2018 06:10:00 17.5 C 96 % 16.85 C
1228 02-08-2018 06:15:00 17.5 C 96 % 16.85 C
1229 02-08-2018 06:20:00 17.5 C 96 % 16.85 C
1230 02-08-2018 06:25:00 17.5 C 96 % 16.85 C
1231 02-08-2018 06:30:00 17.5 C 96 % 16.85 C
1232 02-08-2018 06:35:00 17.4 C 96 % 16.76 C
1233 02-08-2018 06:40:00 17.4 C 96 % 16.76 C
1234 02-08-2018 06:45:00 17.4 C 95 % 16.59 C
1235 02-08-2018 06:50:00 17.4 C 95 % 16.59 C
1236 02-08-2018 06:55:00 17.4 C 95 % 16.59 C
1237 02-08-2018 07:00:00 17.5 C 95 % 16.69 C
1238 02-08-2018 07:05:00 17.5 C 95 % 16.69 C
1239 02-08-2018 07:10:00 17.6 C 95 % 16.79 C
1240 02-08-2018 07:15:00 17.6 C 95 % 16.79 C
1241 02-08-2018 07:20:00 17.6 C 95 % 16.79 C
1242 02-08-2018 07:25:00 17.6 C 95 % 16.79 C
1243 02-08-2018 07:30:00 17.6 C 95 % 16.79 C
1244 02-08-2018 07:35:00 17.6 C 95 % 16.79 C
1245 02-08-2018 07:40:00 17.6 C 95 % 16.79 C
1246 02-08-2018 07:45:00 17.6 C 95 % 16.79 C
1247 02-08-2018 07:50:00 17.6 C 95 % 16.79 C
1248 02-08-2018 07:55:00 17.7 C 95 % 16.89 C
1249 02-08-2018 08:00:00 17.7 C 95 % 16.89 C
1250 02-08-2018 08:05:00 17.7 C 95 % 16.89 C
Sensor: Nr:Datum:Temp:Feuchte:Taupunkt:
Aussen-T/F 1251 02-08-2018 08:10:00 17.7 C 95 % 16.89 C
1252 02-08-2018 08:15:00 17.7 C 95 % 16.89 C
1253 02-08-2018 08:20:00 17.8 C 95 % 16.99 C
1254 02-08-2018 08:25:00 17.8 C 95 % 16.99 C
1255 02-08-2018 08:30:00 17.8 C 95 % 16.99 C
1256 02-08-2018 08:35:00 17.8 C 95 % 16.99 C
1257 02-08-2018 08:40:00 17.8 C 95 % 16.99 C
1258 02-08-2018 08:45:00 17.9 C 95 % 17.09 C
1259 02-08-2018 08:50:00 18 C 95 % 17.19 C
1260 02-08-2018 08:55:00 18 C 95 % 17.19 C
1261 02-08-2018 09:00:00 18 C 95 % 17.19 C
1262 02-08-2018 09:05:00 18.1 C 95 % 17.29 C
1263 02-08-2018 09:10:00 18.1 C 95 % 17.29 C
1264 02-08-2018 09:15:00 18.3 C 95 % 17.48 C
1265 02-08-2018 09:20:00 18.3 C 95 % 17.48 C
1266 02-08-2018 09:25:00 18.4 C 95 % 17.58 C
1267 02-08-2018 09:30:00 18.5 C 95 % 17.68 C
1268 02-08-2018 09:35:00 18.6 C 95 % 17.78 C
1269 02-08-2018 09:40:00 18.7 C 95 % 17.88 C
1270 02-08-2018 09:45:00 18.9 C 95 % 18.08 C
1271 02-08-2018 09:50:00 18.9 C 95 % 18.08 C
1272 02-08-2018 09:55:00 18.8 C 95 % 17.98 C
1273 02-08-2018 10:00:00 18.8 C 94 % 17.81 C
1274 02-08-2018 10:05:00 18.8 C 94 % 17.81 C
1275 02-08-2018 10:10:00 18.8 C 94 % 17.81 C
Sensor: Nr:Datum:Temp:Feuchte:Taupunkt:
Aussen-T/F 1276 02-08-2018 10:15:00 18.9 C 95 % 18.08 C
1277 02-08-2018 10:20:00 19.1 C 94 % 18.11 C
1278 02-08-2018 10:25:00 19.2 C 94 % 18.21 C
1279 02-08-2018 10:30:00 19.3 C 94 % 18.31 C
1280 02-08-2018 10:35:00 19.4 C 94 % 18.41 C
1281 02-08-2018 10:40:00 19.6 C 93 % 18.44 C
1282 02-08-2018 10:45:00 19.7 C 93 % 18.54 C
1283 02-08-2018 10:50:00 19.8 C 92 % 18.46 C
1284 02-08-2018 10:55:00 20.1 C 92 % 18.76 C
1285 02-08-2018 11:00:00 20.3 C 91 % 18.78 C
1286 02-08-2018 11:05:00 20.6 C 90 % 18.9 C
1287 02-08-2018 11:10:00 20.7 C 90 % 19 C
1288 02-08-2018 11:15:00 20.9 C 90 % 19.2 C
1289 02-08-2018 11:20:00 21.1 C 90 % 19.39 C
1290 02-08-2018 11:25:00 21.2 C 89 % 19.31 C
1291 02-08-2018 11:30:00 21.4 C 89 % 19.51 C
1292 02-08-2018 11:35:00 21.6 C 89 % 19.71 C
1293 02-08-2018 11:40:00 21.8 C 87 % 19.54 C
1294 02-08-2018 11:45:00 22.1 C 87 % 19.83 C
1295 02-08-2018 11:50:00 22.2 C 87 % 19.93 C
1296 02-08-2018 11:55:00 22.3 C 84 % 19.46 C
1297 02-08-2018 12:00:00 22.5 C 85 % 19.85 C
1298 02-08-2018 12:05:00 22.7 C 85 % 20.05 C
1299 02-08-2018 12:10:00 22.9 C 86 % 20.43 C
1300 02-08-2018 12:15:00 23 C 81 % 19.56 C
Sensor: Nr:Datum:Temp:Feuchte:Taupunkt:
Aussen-T/F 1301 02-08-2018 12:20:00 23.3 C 79 % 19.45 C
1302 02-08-2018 12:25:00 23.7 C 81 % 20.24 C
1303 02-08-2018 12:30:00 24 C 78 % 19.92 C
1304 02-08-2018 12:35:00 24.4 C 73 % 19.24 C
1305 02-08-2018 12:40:00 24.8 C 71 % 19.18 C
1306 02-08-2018 12:45:00 25.2 C 70 % 19.34 C
1307 02-08-2018 12:50:00 25.5 C 69 % 19.39 C
1308 02-08-2018 12:55:00 25.8 C 70 % 19.91 C
1309 02-08-2018 13:00:00 25.9 C 72 % 20.46 C
1310 02-08-2018 13:05:00 26.1 C 69 % 19.96 C
1311 02-08-2018 13:10:00 26.2 C 68 % 19.82 C
1312 02-08-2018 13:15:00 26.3 C 68 % 19.92 C
1313 02-08-2018 13:20:00 26.7 C 67 % 20.06 C
1314 02-08-2018 13:25:00 26.8 C 66 % 19.91 C
1315 02-08-2018 13:30:00 26.9 C 66 % 20.01 C
1316 02-08-2018 13:35:00 27.1 C 64 % 19.7 C
1317 02-08-2018 13:40:00 27.2 C 65 % 20.04 C
1318 02-08-2018 13:45:00 27.4 C 64 % 19.98 C
1319 02-08-2018 13:50:00 27.6 C 62 % 19.66 C
1320 02-08-2018 13:55:00 27.7 C 63 % 20.01 C
1321 02-08-2018 14:00:00 27.9 C 63 % 20.2 C
1322 02-08-2018 14:05:00 28.1 C 62 % 20.13 C
1323 02-08-2018 14:10:00 28.3 C 61 % 20.06 C
1324 02-08-2018 14:15:00 28.3 C 61 % 20.06 C
1325 02-08-2018 14:20:00 28.4 C 60 % 19.88 C
Sensor: Nr:Datum:Temp:Feuchte:Taupunkt:
Aussen-T/F 1326 02-08-2018 14:25:00 28.5 C 61 % 20.24 C
1327 02-08-2018 14:30:00 28.6 C 59 % 19.8 C
1328 02-08-2018 14:35:00 28.7 C 61 % 20.43 C
1329 02-08-2018 14:40:00 28.9 C 59 % 20.08 C
1330 02-08-2018 14:45:00 29.1 C 57 % 19.71 C
1331 02-08-2018 14:50:00 29.2 C 58 % 20.08 C
1332 02-08-2018 14:55:00 29.5 C 57 % 20.08 C
1333 02-08-2018 15:00:00 29.7 C 57 % 20.27 C
1334 02-08-2018 15:05:00 29.7 C 57 % 20.27 C
1335 02-08-2018 15:10:00 29.8 C 57 % 20.36 C
1336 02-08-2018 15:15:00 29.9 C 55 % 19.88 C
1337 02-08-2018 15:20:00 30.1 C 55 % 20.06 C
1338 02-08-2018 15:25:00 30.4 C 52 % 19.43 C
1339 02-08-2018 15:30:00 30.7 C 51 % 19.4 C
1340 02-08-2018 15:35:00 31.1 C 51 % 19.76 C
1341 02-08-2018 15:40:00 31.4 C 49 % 19.39 C
1342 02-08-2018 15:45:00 31.8 C 49 % 19.76 C
1343 02-08-2018 15:50:00 32.1 C 46 % 19.02 C
1344 02-08-2018 15:55:00 32.2 C 45 % 18.75 C
1345 02-08-2018 16:00:00 32.3 C 47 % 19.54 C
1346 02-08-2018 16:05:00 32.5 C 46 % 19.38 C
1347 02-08-2018 16:10:00 32.7 C 44 % 18.84 C
1348 02-08-2018 16:15:00 32.8 C 40 % 17.42 C
1349 02-08-2018 16:20:00 33.1 C 42 % 18.46 C
1350 02-08-2018 16:25:00 33.3 C 40 % 17.86 C
Sensor: Nr:Datum:Temp:Feuchte:Taupunkt:
Aussen-T/F 1351 02-08-2018 16:30:00 33.3 C 40 % 17.86 C
1352 02-08-2018 16:35:00 33.3 C 42 % 18.64 C
1353 02-08-2018 16:40:00 33.4 C 40 % 17.95 C
1354 02-08-2018 16:45:00 33.6 C 40 % 18.13 C
1355 02-08-2018 16:50:00 33.6 C 39 % 17.73 C
1356 02-08-2018 16:55:00 33.8 C 40 % 18.31 C
1357 02-08-2018 17:00:00 34.1 C 40 % 18.57 C
1358 02-08-2018 17:05:00 34.3 C 38 % 17.93 C
1359 02-08-2018 17:10:00 34.4 C 39 % 18.43 C
1360 02-08-2018 17:15:00 34.3 C 40 % 18.75 C
1361 02-08-2018 17:20:00 34.2 C 39 % 18.26 C
1362 02-08-2018 17:25:00 34.1 C 39 % 18.17 C
1363 02-08-2018 17:30:00 33.9 C 40 % 18.4 C
1364 02-08-2018 17:35:00 34 C 37 % 17.25 C
1365 02-08-2018 17:40:00 34.1 C 38 % 17.76 C
1366 02-08-2018 17:45:00 34.3 C 38 % 17.93 C
1367 02-08-2018 17:50:00 34.3 C 39 % 18.35 C
1368 02-08-2018 17:55:00 34.5 C 37 % 17.69 C
1369 02-08-2018 18:00:00 34.6 C 37 % 17.77 C
1370 02-08-2018 18:05:00 34.5 C 36 % 17.25 C
1371 02-08-2018 18:10:00 34.3 C 36 % 17.08 C
1372 02-08-2018 18:15:00 34.2 C 37 % 17.42 C
1373 02-08-2018 18:20:00 34.2 C 36 % 16.99 C
1374 02-08-2018 18:25:00 34.3 C 37 % 17.51 C
1375 02-08-2018 18:30:00 34.4 C 36 % 17.16 C
Sensor: Nr:Datum:Temp:Feuchte:Taupunkt:
Aussen-T/F 1376 02-08-2018 18:35:00 34.4 C 37 % 17.6 C
1377 02-08-2018 18:40:00 34.3 C 37 % 17.51 C
1378 02-08-2018 18:45:00 34.3 C 37 % 17.51 C
1379 02-08-2018 18:50:00 34.2 C 35 % 16.54 C
1380 02-08-2018 18:55:00 34.1 C 36 % 16.9 C
1381 02-08-2018 19:00:00 34.2 C 35 % 16.54 C
1382 02-08-2018 19:05:00 34.2 C 36 % 16.99 C
1383 02-08-2018 19:10:00 34.2 C 36 % 16.99 C
1384 02-08-2018 19:15:00 34 C 37 % 17.25 C
1385 02-08-2018 19:20:00 33.7 C 37 % 16.98 C
1386 02-08-2018 19:25:00 33.4 C 36 % 16.29 C
1387 02-08-2018 19:30:00 33.2 C 36 % 16.11 C
1388 02-08-2018 19:35:00 32.9 C 36 % 15.85 C
1389 02-08-2018 19:40:00 32.8 C 38 % 16.61 C
1390 02-08-2018 19:45:00 32.7 C 36 % 15.67 C
1391 02-08-2018 19:50:00 32.6 C 37 % 16.01 C
1392 02-08-2018 19:55:00 32.4 C 38 % 16.25 C
1393 02-08-2018 20:00:00 32.3 C 40 % 16.97 C
1394 02-08-2018 20:05:00 32.1 C 38 % 15.99 C
1395 02-08-2018 20:10:00 32 C 39 % 16.31 C
1396 02-08-2018 20:15:00 31.9 C 44 % 18.12 C
1397 02-08-2018 20:20:00 31.7 C 44 % 17.94 C
1398 02-08-2018 20:25:00 31.3 C 45 % 17.94 C
1399 02-08-2018 20:30:00 30.9 C 43 % 16.86 C
1400 02-08-2018 20:35:00 30.4 C 49 % 18.48 C
Sensor: Nr:Datum:Temp:Feuchte:Taupunkt:
Aussen-T/F 1401 02-08-2018 20:40:00 29.9 C 50 % 18.35 C
1402 02-08-2018 20:45:00 29.4 C 53 % 18.82 C
1403 02-08-2018 20:50:00 28.8 C 56 % 19.14 C
1404 02-08-2018 20:55:00 28.2 C 58 % 19.15 C
1405 02-08-2018 21:00:00 27.7 C 58 % 18.68 C
1406 02-08-2018 21:05:00 27.2 C 58 % 18.22 C
1407 02-08-2018 21:10:00 26.8 C 58 % 17.84 C
1408 02-08-2018 21:15:00 26.5 C 60 % 18.1 C
1409 02-08-2018 21:20:00 26.2 C 60 % 17.82 C
1410 02-08-2018 21:25:00 25.9 C 61 % 17.8 C
1411 02-08-2018 21:30:00 25.7 C 62 % 17.87 C
1412 02-08-2018 21:35:00 25.6 C 61 % 17.52 C
1413 02-08-2018 21:40:00 25.4 C 62 % 17.59 C
1414 02-08-2018 21:45:00 25.3 C 61 % 17.24 C
1415 02-08-2018 21:50:00 25.2 C 61 % 17.14 C
1416 02-08-2018 21:55:00 25.1 C 62 % 17.31 C
1417 02-08-2018 22:00:00 24.9 C 63 % 17.37 C
1418 02-08-2018 22:05:00 24.8 C 63 % 17.28 C
1419 02-08-2018 22:10:00 24.6 C 63 % 17.09 C
1420 02-08-2018 22:15:00 24.5 C 63 % 16.99 C
1421 02-08-2018 22:20:00 24.4 C 63 % 16.9 C
1422 02-08-2018 22:25:00 24.3 C 66 % 17.54 C
1423 02-08-2018 22:30:00 24.1 C 64 % 16.86 C
1424 02-08-2018 22:35:00 24 C 65 % 17.01 C
1425 02-08-2018 22:40:00 23.9 C 66 % 17.16 C
Sensor: Nr:Datum:Temp:Feuchte:Taupunkt:
Aussen-T/F 1426 02-08-2018 22:45:00 23.9 C 67 % 17.4 C
1427 02-08-2018 22:50:00 23.8 C 67 % 17.3 C
1428 02-08-2018 22:55:00 23.8 C 67 % 17.3 C
1429 02-08-2018 23:00:00 23.8 C 67 % 17.3 C
1430 02-08-2018 23:05:00 23.8 C 65 % 16.83 C
1431 02-08-2018 23:10:00 23.9 C 65 % 16.92 C
1432 02-08-2018 23:15:00 23.9 C 66 % 17.16 C
1433 02-08-2018 23:20:00 23.9 C 66 % 17.16 C
1434 02-08-2018 23:25:00 23.9 C 65 % 16.92 C
1435 02-08-2018 23:30:00 23.8 C 66 % 17.07 C
1436 02-08-2018 23:35:00 23.8 C 67 % 17.3 C
1437 02-08-2018 23:40:00 23.7 C 67 % 17.21 C
1438 02-08-2018 23:45:00 23.6 C 66 % 16.88 C
1439 02-08-2018 23:50:00 23.4 C 65 % 16.45 C
1440 02-08-2018 23:55:00 23.4 C 67 % 16.92 C

Legende:
   Min
   Max


Maximal/Minimal-Werte vom 29.07.2018 - 02.08.2018

Sensor Min Max Avg
Temp
(Aussen-T/F)
16 °C
30-07-2018  05:55:00
36.2 °C
31-07-2018  17:15:00
23.55 °C
Feuchte
(Aussen-T/F)
29 %
31-07-2018  17:15:00
96 %
01-08-2018  08:50:00
70.84 %
Taupunkt
(Aussen-T/F)
13.51 C
30-07-2018  05:15:00
21.68 C
01-08-2018  18:45:00
17.05 C

Die Daten stammen von einer Davis Vantage Pro 2 Wetter-Station und werden unter Linux mit der Software wview2wettercgi und aufbereitet. Alle Angaben erfolgen ohne Gewähr für ihre Vollständigkeit oder Richtigkeit.
Kontakt: Rainer Krienke krienke@uni-koblenz.de . Meine Webseiten an der Uni Koblenz oder privat.
Version: $Revision: 0.78 $